Time,TemperatureF,DewpointF,PressureIn,WindDirection,WindDirectionDegrees,WindSpeedMPH,WindSpeedGustMPH,Humidity,HourlyPrecipIn,Conditions,Clouds,dailyrainin,SoftwareType,DateUTC
2013-02-21 00:00:00,23.4,13.0,29.54,NNW,338,3.4,12.3,64,0.00,,,0.00,WUHU216HW,2013-02-21 05:00:00,
2013-02-21 00:05:00,23.4,13.0,29.54,WSW,248,8.9,8.9,64,0.00,,,0.00,WUHU216HW,2013-02-21 05:05:00,
2013-02-21 00:10:00,23.4,13.0,29.55,NW,315,3.8,9.8,64,0.00,,,0.00,WUHU216HW,2013-02-21 05:10:00,
2013-02-21 00:15:00,23.4,12.6,29.54,West,270,9.6,21.0,63,0.00,,,0.00,WUHU216HW,2013-02-21 05:15:00,
2013-02-21 00:16:00,23.4,12.6,29.54,WSW,248,9.4,21.0,63,0.00,,,0.00,WUHU216HW,2013-02-21 05:16:00,
2013-02-21 00:20:00,23.4,12.6,29.54,West,270,7.8,21.0,63,0.00,,,0.00,WUHU216HW,2013-02-21 05:20:00,
2013-02-21 00:21:00,23.4,12.6,29.54,NW,315,4.7,21.0,63,0.00,,,0.00,WUHU216HW,2013-02-21 05:21:00,
2013-02-21 00:25:00,23.2,12.4,29.54,WNW,293,5.6,13.0,63,0.00,,,0.00,WUHU216HW,2013-02-21 05:25:00,
2013-02-21 00:26:00,23.2,12.4,29.54,NW,315,6.9,13.0,63,0.00,,,0.00,WUHU216HW,2013-02-21 05:26:00,
2013-02-21 00:30:00,23.2,12.4,29.55,West,270,6.5,12.3,63,0.00,,,0.00,WUHU216HW,2013-02-21 05:30:00,
2013-02-21 00:31:00,23.2,12.4,29.55,WNW,293,9.2,12.3,63,0.00,,,0.00,WUHU216HW,2013-02-21 05:31:00,
2013-02-21 00:35:00,23.0,12.2,29.55,NW,315,4.7,11.2,63,0.00,,,0.00,WUHU216HW,2013-02-21 05:35:00,
2013-02-21 00:36:00,23.0,12.2,29.55,NNW,338,3.4,11.2,63,0.00,,,0.00,WUHU216HW,2013-02-21 05:36:00,
2013-02-21 00:40:00,23.0,12.2,29.55,NW,315,8.1,9.2,63,0.00,,,0.00,WUHU216HW,2013-02-21 05:40:00,
2013-02-21 00:41:00,23.0,12.2,29.55,West,270,6.3,8.9,63,0.00,,,0.00,WUHU216HW,2013-02-21 05:41:00,
2013-02-21 00:46:00,22.9,12.1,29.55,West,270,13.9,13.9,63,0.00,,,0.00,WUHU216HW,2013-02-21 05:46:00,
2013-02-21 00:51:00,22.9,12.1,29.55,NW,315,5.4,16.3,63,0.00,,,0.00,WUHU216HW,2013-02-21 05:51:00,
2013-02-21 00:52:00,22.9,12.1,29.55,NW,315,4.0,16.3,63,0.00,,,0.00,WUHU216HW,2013-02-21 05:52:00,
2013-02-21 00:56:00,22.9,12.1,29.55,NNW,338,1.6,16.3,63,0.00,,,0.00,WUHU216HW,2013-02-21 05:56:00,
2013-02-21 00:57:00,22.9,12.1,29.54,West,270,6.9,11.6,63,0.00,,,0.00,WUHU216HW,2013-02-21 05:57:00,
2013-02-21 01:02:00,22.7,11.9,29.55,NNW,338,3.4,12.3,63,0.00,,,0.00,WUHU216HW,2013-02-21 06:02:00,
2013-02-21 01:03:00,22.7,11.9,29.55,NNE,23,6.5,12.3,63,0.00,,,0.00,WUHU216HW,2013-02-21 06:03:00,
2013-02-21 01:04:00,22.7,11.9,29.55,WSW,248,11.4,12.3,63,0.00,,,0.00,WUHU216HW,2013-02-21 06:04:00,
2013-02-21 01:06:00,22.7,11.9,29.54,NW,315,6.9,12.3,63,0.00,,,0.00,WUHU216HW,2013-02-21 06:06:00,
2013-02-21 01:07:00,22.7,11.9,29.55,NW,315,3.4,12.3,63,0.00,,,0.00,WUHU216HW,2013-02-21 06:07:00,
2013-02-21 01:08:00,22.7,11.9,29.55,WNW,293,11.4,11.6,63,0.00,,,0.00,WUHU216HW,2013-02-21 06:08:00,
2013-02-21 01:10:00,22.7,11.9,29.55,West,270,7.4,11.6,63,0.00,,,0.00,WUHU216HW,2013-02-21 06:10:00,
2013-02-21 01:11:00,22.7,11.9,29.55,WSW,248,4.3,11.6,63,0.00,,,0.00,WUHU216HW,2013-02-21 06:11:00,
2013-02-21 01:12:00,22.7,11.9,29.55,North,0,2.9,11.6,63,0.00,,,0.00,WUHU216HW,2013-02-21 06:12:00,
2013-02-21 01:13:00,22.7,11.9,29.55,NW,315,3.1,11.6,63,0.00,,,0.00,WUHU216HW,2013-02-21 06:13:00,
2013-02-21 01:24:00,22.5,11.7,29.54,SSW,203,7.8,9.4,63,0.00,,,0.00,WUHU216HW,2013-02-21 06:24:00,
2013-02-21 01:29:00,22.5,11.3,29.54,NW,315,4.5,14.1,62,0.00,,,0.00,WUHU216HW,2013-02-21 06:29:00,
2013-02-21 01:34:00,22.5,11.3,29.54,North,0,8.9,13.2,62,0.00,,,0.00,WUHU216HW,2013-02-21 06:34:00,
2013-02-21 01:35:00,22.5,11.3,29.54,NW,315,4.5,13.2,62,0.00,,,0.00,WUHU216HW,2013-02-21 06:35:00,
2013-02-21 01:39:00,22.5,11.7,29.54,NNW,338,3.8,13.2,63,0.00,,,0.00,WUHU216HW,2013-02-21 06:39:00,
2013-02-21 01:40:00,22.3,11.6,29.54,NNW,338,2.0,13.2,63,0.00,,,0.00,WUHU216HW,2013-02-21 06:40:00,
2013-02-21 01:44:00,22.3,11.6,29.54,NW,315,4.9,9.8,63,0.00,,,0.00,WUHU216HW,2013-02-21 06:44:00,
2013-02-21 01:45:00,22.3,11.6,29.54,NNW,338,3.1,9.8,63,0.00,,,0.00,WUHU216HW,2013-02-21 06:45:00,
2013-02-21 01:49:00,22.3,11.6,29.54,West,270,4.7,6.5,63,0.00,,,0.00,WUHU216HW,2013-02-21 06:49:00,
2013-02-21 01:50:00,22.3,11.9,29.54,NNW,338,4.5,6.5,64,0.00,,,0.00,WUHU216HW,2013-02-21 06:50:00,
2013-02-21 01:54:00,22.3,11.6,29.54,NNW,338,2.5,6.5,63,0.00,,,0.00,WUHU216HW,2013-02-21 06:54:00,
2013-02-21 01:55:00,22.3,11.6,29.54,NW,315,2.0,6.5,63,0.00,,,0.00,WUHU216HW,2013-02-21 06:55:00,
2013-02-21 02:00:00,22.3,11.6,29.54,West,270,2.9,6.5,63,0.00,,,0.00,WUHU216HW,2013-02-21 07:00:00,
2013-02-21 02:05:00,22.3,11.3,29.54,North,0,5.1,13.4,62,0.00,,,0.00,WUHU216HW,2013-02-21 07:05:00,
2013-02-21 02:10:00,22.3,11.6,29.55,WNW,293,4.0,13.4,63,0.00,,,0.00,WUHU216HW,2013-02-21 07:10:00,
2013-02-21 02:11:00,22.3,11.6,29.54,West,270,4.7,13.4,63,0.00,,,0.00,WUHU216HW,2013-02-21 07:11:00,
2013-02-21 02:15:00,22.3,11.6,29.54,NW,315,5.1,7.6,63,0.00,,,0.00,WUHU216HW,2013-02-21 07:15:00,
2013-02-21 02:16:00,22.3,11.6,29.54,NNW,338,6.7,7.6,63,0.00,,,0.00,WUHU216HW,2013-02-21 07:16:00,
2013-02-21 02:20:00,22.3,11.6,29.55,NNW,338,4.5,7.6,63,0.00,,,0.00,WUHU216HW,2013-02-21 07:20:00,
2013-02-21 02:21:00,22.3,11.6,29.55,West,270,7.6,7.6,63,0.00,,,0.00,WUHU216HW,2013-02-21 07:21:00,
2013-02-21 02:25:00,22.3,11.6,29.55,WNW,293,6.3,8.5,63,0.00,,,0.00,WUHU216HW,2013-02-21 07:25:00,
2013-02-21 02:26:00,22.3,11.6,29.55,WSW,248,5.4,8.5,63,0.00,,,0.00,WUHU216HW,2013-02-21 07:26:00,
2013-02-21 02:30:00,22.3,11.6,29.54,NW,315,8.1,9.2,63,0.00,,,0.00,WUHU216HW,2013-02-21 07:30:00,
2013-02-21 02:31:00,22.3,11.6,29.54,NW,315,3.8,9.2,63,0.00,,,0.00,WUHU216HW,2013-02-21 07:31:00,
2013-02-21 02:35:00,22.1,11.4,29.54,NNW,338,3.4,9.2,63,0.00,,,0.00,WUHU216HW,2013-02-21 07:35:00,
2013-02-21 02:36:00,22.3,11.6,29.54,North,0,3.4,9.2,63,0.00,,,0.00,WUHU216HW,2013-02-21 07:36:00,
2013-02-21 02:40:00,22.1,11.8,29.54,WSW,248,5.6,7.8,64,0.00,,,0.00,WUHU216HW,2013-02-21 07:40:00,
2013-02-21 02:41:00,22.1,11.8,29.54,NW,315,5.1,6.9,64,0.00,,,0.00,WUHU216HW,2013-02-21 07:41:00,
2013-02-21 02:42:00,22.1,11.8,29.54,WNW,293,4.5,6.9,64,0.00,,,0.00,WUHU216HW,2013-02-21 07:42:00,
2013-02-21 02:45:00,22.1,11.8,29.54,WNW,293,6.3,9.8,64,0.00,,,0.00,WUHU216HW,2013-02-21 07:45:00,
2013-02-21 02:46:00,22.1,11.8,29.55,West,270,8.5,9.8,64,0.00,,,0.00,WUHU216HW,2013-02-21 07:46:00,
2013-02-21 02:47:00,22.1,11.8,29.55,NW,315,3.8,9.8,64,0.00,,,0.00,WUHU216HW,2013-02-21 07:47:00,
2013-02-21 02:50:00,22.1,11.8,29.54,West,270,7.6,9.8,64,0.00,,,0.00,WUHU216HW,2013-02-21 07:50:00,
2013-02-21 02:51:00,22.0,11.6,29.54,West,270,7.6,9.8,64,0.00,,,0.00,WUHU216HW,2013-02-21 07:51:00,
2013-02-21 02:52:00,22.0,11.6,29.55,WNW,293,7.2,9.8,64,0.00,,,0.00,WUHU216HW,2013-02-21 07:52:00,
2013-02-21 02:55:00,22.0,11.6,29.54,NW,315,4.7,8.5,64,0.00,,,0.00,WUHU216HW,2013-02-21 07:55:00,
2013-02-21 02:56:00,22.0,11.6,29.54,NW,315,4.9,8.7,64,0.00,,,0.00,WUHU216HW,2013-02-21 07:56:00,
2013-02-21 02:57:00,22.0,11.6,29.54,North,0,4.0,8.7,64,0.00,,,0.00,WUHU216HW,2013-02-21 07:57:00,
2013-02-21 03:01:00,22.0,11.6,29.54,WNW,293,5.8,8.7,64,0.00,,,0.00,WUHU216HW,2013-02-21 08:01:00,
2013-02-21 03:02:00,22.0,12.0,29.54,WSW,248,6.0,8.7,65,0.00,,,0.00,WUHU216HW,2013-02-21 08:02:00,
2013-02-21 03:06:00,22.0,11.6,29.54,NNW,338,10.1,10.1,64,0.00,,,0.00,WUHU216HW,2013-02-21 08:06:00,
2013-02-21 03:07:00,22.0,11.6,29.54,NW,315,6.0,10.1,64,0.00,,,0.00,WUHU216HW,2013-02-21 08:07:00,
2013-02-21 03:08:00,22.0,11.6,29.54,NW,315,6.5,10.1,64,0.00,,,0.00,WUHU216HW,2013-02-21 08:08:00,
2013-02-21 03:11:00,22.0,11.6,29.54,West,270,5.6,10.1,64,0.00,,,0.00,WUHU216HW,2013-02-21 08:11:00,
2013-02-21 03:12:00,22.0,11.6,29.53,WNW,293,5.4,10.1,64,0.00,,,0.00,WUHU216HW,2013-02-21 08:12:00,
2013-02-21 03:13:00,22.0,11.6,29.53,WNW,293,5.8,10.1,64,0.00,,,0.00,WUHU216HW,2013-02-21 08:13:00,
2013-02-21 03:16:00,22.0,11.6,29.53,NW,315,6.7,9.2,64,0.00,,,0.00,WUHU216HW,2013-02-21 08:16:00,
2013-02-21 03:17:00,22.0,11.6,29.53,NW,315,6.7,9.2,64,0.00,,,0.00,WUHU216HW,2013-02-21 08:17:00,
2013-02-21 03:18:00,22.0,11.6,29.53,WNW,293,6.0,11.0,64,0.00,,,0.00,WUHU216HW,2013-02-21 08:18:00,
2013-02-21 03:21:00,22.0,11.6,29.53,West,270,3.6,11.0,64,0.00,,,0.00,WUHU216HW,2013-02-21 08:21:00,
2013-02-21 03:22:00,22.0,11.6,29.53,West,270,3.6,11.0,64,0.00,,,0.00,WUHU216HW,2013-02-21 08:22:00,
2013-02-21 03:24:00,22.0,11.6,29.53,NW,315,9.2,12.3,64,0.00,,,0.00,WUHU216HW,2013-02-21 08:24:00,
2013-02-21 03:27:00,21.8,11.4,29.53,NNW,338,3.4,12.3,64,0.00,,,0.00,WUHU216HW,2013-02-21 08:27:00,
2013-02-21 03:29:00,21.8,11.8,29.53,WNW,293,4.7,12.3,65,0.00,,,0.00,WUHU216HW,2013-02-21 08:29:00,
2013-02-21 03:32:00,21.8,11.8,29.52,WNW,293,8.5,13.0,65,0.00,,,0.00,WUHU216HW,2013-02-21 08:32:00,
2013-02-21 03:34:00,21.6,11.6,29.52,WNW,293,5.6,13.0,65,0.00,,,0.00,WUHU216HW,2013-02-21 08:34:00,
2013-02-21 03:37:00,21.6,11.6,29.53,WNW,293,4.0,13.0,65,0.00,,,0.00,WUHU216HW,2013-02-21 08:37:00,
2013-02-21 03:38:00,21.6,11.6,29.53,NW,315,4.0,13.0,65,0.00,,,0.00,WUHU216HW,2013-02-21 08:38:00,
2013-02-21 03:39:00,21.6,11.6,29.52,NW,315,9.8,13.0,65,0.00,,,0.00,WUHU216HW,2013-02-21 08:39:00,
2013-02-21 03:42:00,21.6,11.6,29.52,NW,315,9.8,12.1,65,0.00,,,0.00,WUHU216HW,2013-02-21 08:42:00,
2013-02-21 03:43:00,21.6,11.6,29.52,West,270,10.3,11.0,65,0.00,,,0.00,WUHU216HW,2013-02-21 08:43:00,
2013-02-21 03:44:00,21.6,11.6,29.52,NW,315,8.5,11.0,65,0.00,,,0.00,WUHU216HW,2013-02-21 08:44:00,
2013-02-21 03:47:00,21.4,11.4,29.52,West,270,7.6,11.0,65,0.00,,,0.00,WUHU216HW,2013-02-21 08:47:00,
2013-02-21 03:48:00,21.4,11.4,29.52,WNW,293,11.4,11.4,65,0.00,,,0.00,WUHU216HW,2013-02-21 08:48:00,
2013-02-21 03:49:00,21.4,11.4,29.52,WSW,248,11.2,11.4,65,0.00,,,0.00,WUHU216HW,2013-02-21 08:49:00,
2013-02-21 03:52:00,21.4,11.4,29.52,West,270,8.5,11.4,65,0.00,,,0.00,WUHU216HW,2013-02-21 08:52:00,
2013-02-21 03:53:00,21.4,11.4,29.52,West,270,11.9,15.0,65,0.00,,,0.00,WUHU216HW,2013-02-21 08:53:00,
2013-02-21 03:54:00,21.4,11.4,29.52,West,270,7.6,15.0,65,0.00,,,0.00,WUHU216HW,2013-02-21 08:54:00,
2013-02-21 03:57:00,21.4,11.4,29.52,West,270,5.4,15.0,65,0.00,,,0.00,WUHU216HW,2013-02-21 08:57:00,
2013-02-21 03:58:00,21.2,11.3,29.52,West,270,5.4,15.0,65,0.00,,,0.00,WUHU216HW,2013-02-21 08:58:00,
2013-02-21 04:00:00,21.4,11.4,29.53,NW,315,4.9,15.0,65,0.00,,,0.00,WUHU216HW,2013-02-21 09:00:00,
2013-02-21 04:02:00,21.4,11.4,29.53,NW,315,8.1,15.0,65,0.00,,,0.00,WUHU216HW,2013-02-21 09:02:00,
2013-02-21 04:03:00,21.2,11.3,29.53,West,270,6.7,11.9,65,0.00,,,0.00,WUHU216HW,2013-02-21 09:03:00,
2013-02-21 04:05:00,21.4,11.4,29.52,NW,315,11.0,11.0,65,0.00,,,0.00,WUHU216HW,2013-02-21 09:05:00,
2013-02-21 04:07:00,21.4,11.4,29.52,WNW,293,8.5,11.0,65,0.00,,,0.00,WUHU216HW,2013-02-21 09:07:00,
2013-02-21 04:08:00,21.4,11.4,29.52,West,270,7.4,11.0,65,0.00,,,0.00,WUHU216HW,2013-02-21 09:08:00,
2013-02-21 04:10:00,21.4,11.4,29.52,SW,225,10.1,13.0,65,0.00,,,0.00,WUHU216HW,2013-02-21 09:10:00,
2013-02-21 04:12:00,21.4,11.4,29.52,West,270,9.6,13.0,65,0.00,,,0.00,WUHU216HW,2013-02-21 09:12:00,
2013-02-21 04:13:00,21.4,11.4,29.52,WNW,293,11.9,13.0,65,0.00,,,0.00,WUHU216HW,2013-02-21 09:13:00,
2013-02-21 04:14:00,21.4,11.4,29.52,NW,315,9.8,13.0,65,0.00,,,0.00,WUHU216HW,2013-02-21 09:14:00,
2013-02-21 04:16:00,21.4,11.4,29.52,WNW,293,5.8,17.2,65,0.00,,,0.00,WUHU216HW,2013-02-21 09:16:00,
2013-02-21 04:17:00,21.2,11.3,29.52,WNW,293,11.2,17.2,65,0.00,,,0.00,WUHU216HW,2013-02-21 09:17:00,
2013-02-21 04:18:00,21.4,11.4,29.52,WNW,293,8.7,17.2,65,0.00,,,0.00,WUHU216HW,2013-02-21 09:18:00,
2013-02-21 04:19:00,21.4,11.4,29.52,North,0,5.4,17.2,65,0.00,,,0.00,WUHU216HW,2013-02-21 09:19:00,
2013-02-21 04:21:00,21.4,11.4,29.52,NNW,338,9.8,17.2,65,0.00,,,0.00,WUHU216HW,2013-02-21 09:21:00,
2013-02-21 04:22:00,21.2,11.3,29.52,NNW,338,5.6,17.2,65,0.00,,,0.00,WUHU216HW,2013-02-21 09:22:00,
2013-02-21 04:23:00,21.4,11.4,29.53,NNW,338,6.5,17.2,65,0.00,,,0.00,WUHU216HW,2013-02-21 09:23:00,
2013-02-21 04:24:00,21.4,11.4,29.53,NW,315,6.9,17.2,65,0.00,,,0.00,WUHU216HW,2013-02-21 09:24:00,
2013-02-21 04:26:00,21.4,11.4,29.53,NNW,338,3.6,11.9,65,0.00,,,0.00,WUHU216HW,2013-02-21 09:26:00,
2013-02-21 04:27:00,21.4,11.4,29.53,WNW,293,6.9,11.9,65,0.00,,,0.00,WUHU216HW,2013-02-21 09:27:00,
2013-02-21 04:28:00,21.4,11.4,29.53,NW,315,4.3,11.9,65,0.00,,,0.00,WUHU216HW,2013-02-21 09:28:00,
2013-02-21 04:29:00,21.4,11.4,29.53,NNW,338,4.5,11.9,65,0.00,,,0.00,WUHU216HW,2013-02-21 09:29:00,
2013-02-21 04:31:00,21.4,11.4,29.53,NW,315,6.5,11.4,65,0.00,,,0.00,WUHU216HW,2013-02-21 09:31:00,
2013-02-21 04:33:00,21.4,11.4,29.53,West,270,2.9,11.4,65,0.00,,,0.00,WUHU216HW,2013-02-21 09:33:00,
2013-02-21 04:34:00,21.4,11.4,29.53,WNW,293,5.4,11.4,65,0.00,,,0.00,WUHU216HW,2013-02-21 09:34:00,
2013-02-21 04:36:00,21.4,11.4,29.53,WNW,293,4.5,11.4,65,0.00,,,0.00,WUHU216HW,2013-02-21 09:36:00,
2013-02-21 04:38:00,21.4,11.4,29.53,West,270,7.8,11.4,65,0.00,,,0.00,WUHU216HW,2013-02-21 09:38:00,
2013-02-21 04:39:00,21.4,11.4,29.53,NNW,338,5.6,11.4,65,0.00,,,0.00,WUHU216HW,2013-02-21 09:39:00,
2013-02-21 04:40:00,21.4,11.4,29.53,WNW,293,10.3,11.4,65,0.00,,,0.00,WUHU216HW,2013-02-21 09:40:00,
2013-02-21 04:41:00,21.4,11.4,29.53,West,270,15.4,15.4,65,0.00,,,0.00,WUHU216HW,2013-02-21 09:41:00,
2013-02-21 04:43:00,21.6,11.6,29.53,NNW,338,4.3,15.4,65,0.00,,,0.00,WUHU216HW,2013-02-21 09:43:00,
2013-02-21 04:44:00,21.4,11.4,29.53,NNW,338,3.4,15.4,65,0.00,,,0.00,WUHU216HW,2013-02-21 09:44:00,
2013-02-21 04:45:00,21.6,11.6,29.53,NW,315,3.4,15.4,65,0.00,,,0.00,WUHU216HW,2013-02-21 09:45:00,
2013-02-21 04:46:00,21.6,11.6,29.53,NW,315,5.4,15.4,65,0.00,,,0.00,WUHU216HW,2013-02-21 09:46:00,
2013-02-21 04:48:00,21.6,11.6,29.53,WNW,293,7.4,15.4,65,0.00,,,0.00,WUHU216HW,2013-02-21 09:48:00,
2013-02-21 04:50:00,21.4,11.4,29.53,North,0,7.8,15.4,65,0.00,,,0.00,WUHU216HW,2013-02-21 09:50:00,
2013-02-21 04:51:00,21.6,11.6,29.53,NW,315,8.9,12.1,65,0.00,,,0.00,WUHU216HW,2013-02-21 09:51:00,
2013-02-21 04:53:00,21.6,11.6,29.53,NW,315,4.3,9.4,65,0.00,,,0.00,WUHU216HW,2013-02-21 09:53:00,
2013-02-21 04:55:00,21.6,11.6,29.53,WNW,293,9.8,10.7,65,0.00,,,0.00,WUHU216HW,2013-02-21 09:55:00,
2013-02-21 04:56:00,21.6,11.6,29.53,WNW,293,5.8,10.7,65,0.00,,,0.00,WUHU216HW,2013-02-21 09:56:00,
2013-02-21 04:58:00,21.6,11.6,29.53,NW,315,11.0,12.5,65,0.00,,,0.00,WUHU216HW,2013-02-21 09:58:00,
2013-02-21 05:00:00,21.6,11.6,29.53,NW,315,7.6,12.5,65,0.00,,,0.00,WUHU216HW,2013-02-21 10:00:00,
2013-02-21 05:01:00,21.6,11.6,29.53,West,270,9.2,12.5,65,0.00,,,0.00,WUHU216HW,2013-02-21 10:01:00,
2013-02-21 05:03:00,21.6,11.6,29.53,NNW,338,4.7,12.5,65,0.00,,,0.00,WUHU216HW,2013-02-21 10:03:00,
2013-02-21 05:05:00,21.6,11.6,29.53,WNW,293,11.4,12.5,65,0.00,,,0.00,WUHU216HW,2013-02-21 10:05:00,
2013-02-21 05:06:00,21.6,11.6,29.53,NNW,338,10.5,12.5,65,0.00,,,0.00,WUHU216HW,2013-02-21 10:06:00,
2013-02-21 05:09:00,21.4,11.4,29.53,West,270,7.6,11.4,65,0.00,,,0.00,WUHU216HW,2013-02-21 10:09:00,
2013-02-21 05:10:00,21.4,11.4,29.53,West,270,8.3,11.4,65,0.00,,,0.00,WUHU216HW,2013-02-21 10:10:00,
2013-02-21 05:11:00,21.4,11.4,29.53,WNW,293,9.4,11.4,65,0.00,,,0.00,WUHU216HW,2013-02-21 10:11:00,
2013-02-21 05:12:00,21.4,11.4,29.53,WNW,293,12.1,12.1,65,0.00,,,0.00,WUHU216HW,2013-02-21 10:12:00,
2013-02-21 05:14:00,21.4,11.4,29.53,NW,315,4.7,12.1,65,0.00,,,0.00,WUHU216HW,2013-02-21 10:14:00,
2013-02-21 05:15:00,21.4,11.4,29.53,NNW,338,8.5,12.1,65,0.00,,,0.00,WUHU216HW,2013-02-21 10:15:00,
2013-02-21 05:16:00,21.2,11.3,29.52,NNW,338,7.2,13.6,65,0.00,,,0.00,WUHU216HW,2013-02-21 10:16:00,
2013-02-21 05:17:00,21.2,11.3,29.52,West,270,14.5,14.5,65,0.00,,,0.00,WUHU216HW,2013-02-21 10:17:00,
2013-02-21 05:19:00,21.2,11.3,29.52,West,270,11.4,14.5,65,0.00,,,0.00,WUHU216HW,2013-02-21 10:19:00,
2013-02-21 05:20:00,21.2,11.3,29.52,West,270,8.9,14.8,65,0.00,,,0.00,WUHU216HW,2013-02-21 10:20:00,
2013-02-21 05:21:00,21.2,11.3,29.52,WNW,293,12.8,14.8,65,0.00,,,0.00,WUHU216HW,2013-02-21 10:21:00,
2013-02-21 05:22:00,21.2,11.3,29.52,NW,315,9.8,14.8,65,0.00,,,0.00,WUHU216HW,2013-02-21 10:22:00,
2013-02-21 05:24:00,21.2,11.3,29.52,WNW,293,10.3,14.8,65,0.00,,,0.00,WUHU216HW,2013-02-21 10:24:00,
2013-02-21 05:26:00,21.2,11.3,29.52,WSW,248,14.3,14.8,65,0.00,,,0.00,WUHU216HW,2013-02-21 10:26:00,
2013-02-21 05:27:00,21.2,11.3,29.52,WSW,248,15.2,15.2,65,0.00,,,0.00,WUHU216HW,2013-02-21 10:27:00,
2013-02-21 05:29:00,21.2,11.3,29.52,West,270,19.9,19.9,65,0.00,,,0.00,WUHU216HW,2013-02-21 10:29:00,
2013-02-21 05:31:00,21.2,11.3,29.52,WNW,293,7.4,19.9,65,0.00,,,0.00,WUHU216HW,2013-02-21 10:31:00,
2013-02-21 05:32:00,21.2,11.3,29.52,NNW,338,8.7,19.9,65,0.00,,,0.00,WUHU216HW,2013-02-21 10:32:00,
2013-02-21 05:34:00,21.2,11.3,29.52,WSW,248,18.3,19.9,65,0.00,,,0.00,WUHU216HW,2013-02-21 10:34:00,
2013-02-21 05:36:00,21.2,11.3,29.52,NNW,338,10.1,19.9,65,0.00,,,0.00,WUHU216HW,2013-02-21 10:36:00,
2013-02-21 05:37:00,21.2,11.3,29.52,West,270,9.4,19.9,65,0.00,,,0.00,WUHU216HW,2013-02-21 10:37:00,
2013-02-21 05:39:00,21.2,11.3,29.53,NNW,338,8.1,19.9,65,0.00,,,0.00,WUHU216HW,2013-02-21 10:39:00,
2013-02-21 05:41:00,21.2,11.3,29.53,NNW,338,5.4,18.6,65,0.00,,,0.00,WUHU216HW,2013-02-21 10:41:00,
2013-02-21 05:42:00,21.2,11.3,29.52,NW,315,6.9,18.6,65,0.00,,,0.00,WUHU216HW,2013-02-21 10:42:00,
2013-02-21 05:44:00,21.2,11.3,29.53,NW,315,9.2,18.6,65,0.00,,,0.00,WUHU216HW,2013-02-21 10:44:00,
2013-02-21 05:46:00,21.2,11.3,29.53,North,0,11.6,15.0,65,0.00,,,0.00,WUHU216HW,2013-02-21 10:46:00,
2013-02-21 05:47:00,21.2,11.3,29.53,North,0,12.8,15.0,65,0.00,,,0.00,WUHU216HW,2013-02-21 10:47:00,
2013-02-21 05:48:00,21.2,10.9,29.53,West,270,11.4,14.1,64,0.00,,,0.00,WUHU216HW,2013-02-21 10:48:00,
2013-02-21 05:49:00,21.2,10.9,29.53,North,0,8.5,14.1,64,0.00,,,0.00,WUHU216HW,2013-02-21 10:49:00,
2013-02-21 05:51:00,21.2,10.5,29.53,NNW,338,9.8,16.3,63,0.00,,,0.00,WUHU216HW,2013-02-21 10:51:00,
2013-02-21 05:52:00,21.2,10.5,29.53,NNW,338,7.4,16.3,63,0.00,,,0.00,WUHU216HW,2013-02-21 10:52:00,
2013-02-21 05:53:00,21.2,10.5,29.53,WNW,293,18.3,18.3,63,0.00,,,0.00,WUHU216HW,2013-02-21 10:53:00,
2013-02-21 05:54:00,21.2,10.3,29.53,North,0,12.5,20.4,62,0.00,,,0.00,WUHU216HW,2013-02-21 10:54:00,
2013-02-21 05:56:00,21.2,10.3,29.53,NW,315,14.1,20.6,62,0.00,,,0.00,WUHU216HW,2013-02-21 10:56:00,
2013-02-21 05:57:00,21.2,10.3,29.53,NNW,338,11.6,20.6,62,0.00,,,0.00,WUHU216HW,2013-02-21 10:57:00,
2013-02-21 05:58:00,21.2,9.9,29.53,NNW,338,10.3,20.6,61,0.00,,,0.00,WUHU216HW,2013-02-21 10:58:00,
2013-02-21 06:00:00,21.2,10.3,29.53,NNW,338,9.2,20.6,62,0.00,,,0.00,WUHU216HW,2013-02-21 11:00:00,
2013-02-21 06:02:00,21.2,9.9,29.53,NNW,338,18.3,20.6,61,0.00,,,0.00,WUHU216HW,2013-02-21 11:02:00,
2013-02-21 06:03:00,21.2,10.3,29.53,WNW,293,9.4,20.6,62,0.00,,,0.00,WUHU216HW,2013-02-21 11:03:00,
2013-02-21 06:05:00,21.2,9.9,29.53,NW,315,16.1,19.2,61,0.00,,,0.00,WUHU216HW,2013-02-21 11:05:00,
2013-02-21 06:07:00,21.1,9.7,29.53,North,0,9.8,19.2,61,0.00,,,0.00,WUHU216HW,2013-02-21 11:07:00,
2013-02-21 06:08:00,21.1,9.7,29.53,NNW,338,15.0,18.3,61,0.00,,,0.00,WUHU216HW,2013-02-21 11:08:00,
2013-02-21 06:10:00,21.1,9.7,29.54,NW,315,8.1,18.3,61,0.00,,,0.00,WUHU216HW,2013-02-21 11:10:00,
2013-02-21 06:12:00,21.1,9.7,29.54,NW,315,6.0,18.3,61,0.00,,,0.00,WUHU216HW,2013-02-21 11:12:00,
2013-02-21 06:13:00,21.1,9.7,29.54,NNW,338,10.5,16.1,61,0.00,,,0.00,WUHU216HW,2013-02-21 11:13:00,
2013-02-21 06:15:00,20.9,9.6,29.54,North,0,9.2,19.0,61,0.00,,,0.00,WUHU216HW,2013-02-21 11:15:00,
2013-02-21 06:17:00,20.9,9.6,29.54,NNW,338,10.1,19.0,61,0.00,,,0.00,WUHU216HW,2013-02-21 11:17:00,
2013-02-21 06:18:00,20.9,9.6,29.55,WSW,248,9.8,19.0,61,0.00,,,0.00,WUHU216HW,2013-02-21 11:18:00,
2013-02-21 06:20:00,20.9,9.6,29.54,NNW,338,16.1,21.5,61,0.00,,,0.00,WUHU216HW,2013-02-21 11:20:00,
2013-02-21 06:22:00,20.9,9.6,29.54,NNW,338,15.0,21.5,61,0.00,,,0.00,WUHU216HW,2013-02-21 11:22:00,
2013-02-21 06:23:00,20.9,9.6,29.54,NW,315,13.4,21.5,61,0.00,,,0.00,WUHU216HW,2013-02-21 11:23:00,
2013-02-21 06:25:00,20.9,9.6,29.54,North,0,16.6,21.5,61,0.00,,,0.00,WUHU216HW,2013-02-21 11:25:00,
2013-02-21 06:27:00,20.9,9.6,29.55,NNW,338,12.3,21.5,61,0.00,,,0.00,WUHU216HW,2013-02-21 11:27:00,
2013-02-21 06:29:00,20.9,9.9,29.54,NNW,338,9.8,21.5,62,0.00,,,0.00,WUHU216HW,2013-02-21 11:29:00,
2013-02-21 06:30:00,20.9,9.9,29.54,North,0,6.3,17.0,62,0.00,,,0.00,WUHU216HW,2013-02-21 11:30:00,
2013-02-21 06:32:00,20.9,9.9,29.54,NNW,338,11.6,17.0,62,0.00,,,0.00,WUHU216HW,2013-02-21 11:32:00,
2013-02-21 06:33:00,20.9,9.9,29.54,NW,315,13.9,17.0,62,0.00,,,0.00,WUHU216HW,2013-02-21 11:33:00,
2013-02-21 06:34:00,20.9,10.2,29.54,NNW,338,13.6,20.6,63,0.00,,,0.00,WUHU216HW,2013-02-21 11:34:00,
2013-02-21 06:35:00,20.9,10.2,29.55,NNW,338,9.2,20.6,63,0.00,,,0.00,WUHU216HW,2013-02-21 11:35:00,
2013-02-21 06:37:00,20.7,10.0,29.54,North,0,13.6,20.6,63,0.00,,,0.00,WUHU216HW,2013-02-21 11:37:00,
2013-02-21 06:38:00,20.7,10.4,29.54,North,0,9.4,20.6,64,0.00,,,0.00,WUHU216HW,2013-02-21 11:38:00,
2013-02-21 06:39:00,20.7,10.4,29.54,North,0,17.9,20.6,64,0.00,,,0.00,WUHU216HW,2013-02-21 11:39:00,
2013-02-21 06:40:00,20.7,10.7,29.54,WNW,293,8.1,20.6,65,0.00,,,0.00,WUHU216HW,2013-02-21 11:40:00,
2013-02-21 06:42:00,20.5,10.5,29.54,NNW,338,11.0,20.6,65,0.00,,,0.00,WUHU216HW,2013-02-21 11:42:00,
2013-02-21 06:43:00,20.5,10.5,29.54,NNW,338,7.8,20.6,65,0.00,,,0.00,WUHU216HW,2013-02-21 11:43:00,
2013-02-21 06:45:00,20.5,10.5,29.55,NNW,338,8.1,17.9,65,0.00,,,0.00,WUHU216HW,2013-02-21 11:45:00,
2013-02-21 06:46:00,20.5,10.5,29.55,NNW,338,16.8,17.9,65,0.00,,,0.00,WUHU216HW,2013-02-21 11:46:00,
2013-02-21 06:47:00,20.5,10.5,29.55,NNW,338,10.7,17.9,65,0.00,,,0.00,WUHU216HW,2013-02-21 11:47:00,
2013-02-21 06:48:00,20.5,10.9,29.55,North,0,6.9,17.9,66,0.00,,,0.00,WUHU216HW,2013-02-21 11:48:00,
2013-02-21 06:50:00,20.3,10.7,29.55,North,0,9.2,16.8,66,0.00,,,0.00,WUHU216HW,2013-02-21 11:50:00,
2013-02-21 06:51:00,20.3,10.7,29.55,NNW,338,7.6,16.8,66,0.00,,,0.00,WUHU216HW,2013-02-21 11:51:00,
2013-02-21 06:52:00,20.2,10.5,29.55,WSW,248,7.6,16.8,66,0.00,,,0.00,WUHU216HW,2013-02-21 11:52:00,
2013-02-21 06:54:00,20.2,10.5,29.55,NW,315,5.6,16.8,66,0.00,,,0.00,WUHU216HW,2013-02-21 11:54:00,
2013-02-21 06:55:00,20.0,10.7,29.55,North,0,2.5,16.8,67,0.00,,,0.00,WUHU216HW,2013-02-21 11:55:00,
2013-02-21 06:56:00,20.0,10.4,29.55,NNW,338,6.3,16.8,66,0.00,,,0.00,WUHU216HW,2013-02-21 11:56:00,
2013-02-21 06:57:00,19.8,10.5,29.55,North,0,9.2,12.1,67,0.00,,,0.00,WUHU216HW,2013-02-21 11:57:00,
2013-02-21 06:59:00,19.8,10.5,29.55,NNW,338,9.8,9.8,67,0.00,,,0.00,WUHU216HW,2013-02-21 11:59:00,
2013-02-21 07:00:00,19.8,10.5,29.56,NW,315,8.5,9.8,67,0.00,,,0.00,WUHU216HW,2013-02-21 12:00:00,
2013-02-21 07:01:00,19.8,10.5,29.55,North,0,8.5,9.8,67,0.00,,,0.00,WUHU216HW,2013-02-21 12:01:00,
2013-02-21 07:02:00,19.6,10.4,29.55,NW,315,3.1,9.8,67,0.00,,,0.00,WUHU216HW,2013-02-21 12:02:00,
2013-02-21 07:04:00,19.4,10.2,29.55,NNW,338,5.8,9.8,67,0.00,,,0.00,WUHU216HW,2013-02-21 12:04:00,
2013-02-21 07:05:00,19.4,10.2,29.55,NNW,338,6.5,9.8,67,0.00,,,0.00,WUHU216HW,2013-02-21 12:05:00,
2013-02-21 07:06:00,19.4,10.2,29.55,WNW,293,11.6,12.1,67,0.00,,,0.00,WUHU216HW,2013-02-21 12:06:00,
2013-02-21 07:07:00,19.4,10.4,29.55,NNW,338,8.3,12.1,68,0.00,,,0.00,WUHU216HW,2013-02-21 12:07:00,
2013-02-21 07:09:00,19.3,10.0,29.55,NNW,338,8.7,12.1,67,0.00,,,0.00,WUHU216HW,2013-02-21 12:09:00,
2013-02-21 07:10:00,19.3,10.4,29.55,North,0,10.5,12.1,68,0.00,,,0.00,WUHU216HW,2013-02-21 12:10:00,
2013-02-21 07:11:00,19.3,10.4,29.55,NNW,338,3.1,12.1,68,0.00,,,0.00,WUHU216HW,2013-02-21 12:11:00,
2013-02-21 07:13:00,19.1,10.2,29.55,NW,315,9.8,12.1,68,0.00,,,0.00,WUHU216HW,2013-02-21 12:13:00,
2013-02-21 07:14:00,19.1,10.2,29.55,North,0,3.8,12.1,68,0.00,,,0.00,WUHU216HW,2013-02-21 12:14:00,
2013-02-21 07:16:00,19.1,10.2,29.55,NNW,338,15.0,15.0,68,0.00,,,0.00,WUHU216HW,2013-02-21 12:16:00,
2013-02-21 07:18:00,19.1,10.2,29.55,North,0,6.0,15.0,68,0.00,,,0.00,WUHU216HW,2013-02-21 12:18:00,
2013-02-21 07:19:00,19.1,10.2,29.55,North,0,15.4,15.4,68,0.00,,,0.00,WUHU216HW,2013-02-21 12:19:00,
2013-02-21 07:21:00,19.1,10.2,29.55,NNW,338,6.9,15.4,68,0.00,,,0.00,WUHU216HW,2013-02-21 12:21:00,
2013-02-21 07:23:00,19.1,10.2,29.55,North,0,9.8,15.4,68,0.00,,,0.00,WUHU216HW,2013-02-21 12:23:00,
2013-02-21 07:25:00,19.1,10.2,29.56,NNW,338,5.8,15.4,68,0.00,,,0.00,WUHU216HW,2013-02-21 12:25:00,
2013-02-21 07:26:00,19.1,10.2,29.56,NNE,23,15.2,16.1,68,0.00,,,0.00,WUHU216HW,2013-02-21 12:26:00,
2013-02-21 07:27:00,19.1,10.2,29.55,North,0,16.6,16.6,68,0.00,,,0.00,WUHU216HW,2013-02-21 12:27:00,
2013-02-21 07:28:00,18.9,10.0,29.55,North,0,15.7,20.6,68,0.00,,,0.00,WUHU216HW,2013-02-21 12:28:00,
2013-02-21 07:30:00,18.9,10.0,29.56,NNW,338,11.0,20.6,68,0.00,,,0.00,WUHU216HW,2013-02-21 12:30:00,
2013-02-21 07:31:00,18.9,10.0,29.56,NNW,338,10.5,20.6,68,0.00,,,0.00,WUHU216HW,2013-02-21 12:31:00,
2013-02-21 07:32:00,18.9,9.6,29.56,North,0,17.2,20.6,67,0.00,,,0.00,WUHU216HW,2013-02-21 12:32:00,
2013-02-21 07:33:00,18.7,9.8,29.57,NNW,338,12.1,20.6,68,0.00,,,0.00,WUHU216HW,2013-02-21 12:33:00,
2013-02-21 07:35:00,18.7,9.5,29.57,NNE,23,8.7,20.6,67,0.00,,,0.00,WUHU216HW,2013-02-21 12:35:00,
2013-02-21 07:36:00,18.7,9.5,29.57,NE,45,13.4,20.6,67,0.00,,,0.00,WUHU216HW,2013-02-21 12:36:00,
2013-02-21 07:37:00,18.7,9.5,29.58,NNW,338,17.0,20.6,67,0.00,,,0.00,WUHU216HW,2013-02-21 12:37:00,
2013-02-21 07:38:00,18.7,9.5,29.58,NNW,338,5.4,17.2,67,0.00,,,0.00,WUHU216HW,2013-02-21 12:38:00,
2013-02-21 07:40:00,18.7,9.5,29.58,NNW,338,14.5,17.2,67,0.00,,,0.00,WUHU216HW,2013-02-21 12:40:00,
2013-02-21 07:41:00,18.7,9.5,29.58,North,0,6.9,17.2,67,0.00,,,0.00,WUHU216HW,2013-02-21 12:41:00,
2013-02-21 07:42:00,18.7,9.5,29.58,NNE,23,9.2,17.0,67,0.00,,,0.00,WUHU216HW,2013-02-21 12:42:00,
2013-02-21 07:43:00,18.9,9.6,29.58,North,0,6.5,17.0,67,0.00,,,0.00,WUHU216HW,2013-02-21 12:43:00,
2013-02-21 07:45:00,18.7,9.2,29.58,North,0,6.3,17.0,66,0.00,,,0.00,WUHU216HW,2013-02-21 12:45:00,
2013-02-21 07:47:00,18.9,9.6,29.58,North,0,8.1,17.0,67,0.00,,,0.00,WUHU216HW,2013-02-21 12:47:00,
2013-02-21 07:48:00,18.7,9.2,29.58,North,0,12.5,14.5,66,0.00,,,0.00,WUHU216HW,2013-02-21 12:48:00,
2013-02-21 07:50:00,18.7,9.2,29.58,NNW,338,4.7,17.9,66,0.00,,,0.00,WUHU216HW,2013-02-21 12:50:00,
2013-02-21 07:52:00,18.7,9.2,29.58,North,0,9.2,17.9,66,0.00,,,0.00,WUHU216HW,2013-02-21 12:52:00,
2013-02-21 07:53:00,18.7,9.5,29.58,North,0,8.5,17.9,67,0.00,,,0.00,WUHU216HW,2013-02-21 12:53:00,
2013-02-21 07:55:00,18.9,9.3,29.58,North,0,12.8,18.8,66,0.00,,,0.00,WUHU216HW,2013-02-21 12:55:00,
2013-02-21 07:57:00,18.7,8.8,29.59,West,270,5.6,20.4,65,0.00,,,0.00,WUHU216HW,2013-02-21 12:57:00,
2013-02-21 07:58:00,18.7,8.8,29.59,NNW,338,5.8,20.4,65,0.00,,,0.00,WUHU216HW,2013-02-21 12:58:00,
2013-02-21 08:00:00,18.7,8.8,29.59,West,270,9.8,20.4,65,0.00,,,0.00,WUHU216HW,2013-02-21 13:00:00,
2013-02-21 08:03:00,18.7,8.8,29.59,NW,315,3.8,20.4,65,0.00,,,0.00,WUHU216HW,2013-02-21 13:03:00,
2013-02-21 08:04:00,18.7,8.8,29.59,North,0,17.7,20.4,65,0.00,,,0.00,WUHU216HW,2013-02-21 13:04:00,
2013-02-21 08:06:00,18.7,8.8,29.59,North,0,9.4,20.4,65,0.00,,,0.00,WUHU216HW,2013-02-21 13:06:00,
2013-02-21 08:08:00,18.7,8.5,29.59,North,0,10.5,18.3,64,0.00,,,0.00,WUHU216HW,2013-02-21 13:08:00,
2013-02-21 08:09:00,18.9,9.0,29.59,North,0,11.6,18.3,65,0.00,,,0.00,WUHU216HW,2013-02-21 13:09:00,
2013-02-21 08:11:00,18.9,9.0,29.59,North,0,11.2,18.3,65,0.00,,,0.00,WUHU216HW,2013-02-21 13:11:00,
2013-02-21 08:13:00,18.9,9.0,29.59,North,0,10.7,21.5,65,0.00,,,0.00,WUHU216HW,2013-02-21 13:13:00,
2013-02-21 08:15:00,18.9,9.0,29.60,NNE,23,15.7,21.5,65,0.00,,,0.00,WUHU216HW,2013-02-21 13:15:00,
2013-02-21 08:16:00,19.1,9.1,29.60,North,0,19.5,23.7,65,0.00,,,0.00,WUHU216HW,2013-02-21 13:16:00,
2013-02-21 08:18:00,19.1,9.1,29.60,NNW,338,8.5,23.7,65,0.00,,,0.00,WUHU216HW,2013-02-21 13:18:00,
2013-02-21 08:20:00,19.1,9.1,29.60,NW,315,9.8,23.7,65,0.00,,,0.00,WUHU216HW,2013-02-21 13:20:00,
2013-02-21 08:22:00,19.1,9.1,29.60,NNW,338,6.9,23.7,65,0.00,,,0.00,WUHU216HW,2013-02-21 13:22:00,
2013-02-21 08:23:00,19.1,9.1,29.60,NNW,338,9.8,23.7,65,0.00,,,0.00,WUHU216HW,2013-02-21 13:23:00,
2013-02-21 08:25:00,19.1,9.1,29.60,NNW,338,7.6,23.7,65,0.00,,,0.00,WUHU216HW,2013-02-21 13:25:00,
2013-02-21 08:27:00,19.1,9.1,29.60,NNW,338,12.1,19.0,65,0.00,,,0.00,WUHU216HW,2013-02-21 13:27:00,
2013-02-21 08:28:00,18.9,9.0,29.60,West,270,8.1,19.0,65,0.00,,,0.00,WUHU216HW,2013-02-21 13:28:00,
2013-02-21 08:30:00,19.1,8.8,29.60,NW,315,11.4,14.5,64,0.00,,,0.00,WUHU216HW,2013-02-21 13:30:00,
2013-02-21 08:32:00,19.1,8.5,29.60,WNW,293,12.1,17.9,63,0.00,,,0.00,WUHU216HW,2013-02-21 13:32:00,
2013-02-21 08:33:00,18.9,8.3,29.60,NNW,338,4.0,17.9,63,0.00,,,0.00,WUHU216HW,2013-02-21 13:33:00,
2013-02-21 08:35:00,18.9,8.3,29.60,WNW,293,8.9,17.9,63,0.00,,,0.00,WUHU216HW,2013-02-21 13:35:00,
2013-02-21 08:37:00,18.9,7.9,29.60,North,0,9.2,18.6,62,0.00,,,0.00,WUHU216HW,2013-02-21 13:37:00,
2013-02-21 08:38:00,18.9,7.9,29.60,NNE,23,8.5,18.6,62,0.00,,,0.00,WUHU216HW,2013-02-21 13:38:00,
2013-02-21 08:40:00,18.7,7.7,29.59,WNW,293,10.3,19.2,62,0.00,,,0.00,WUHU216HW,2013-02-21 13:40:00,
2013-02-21 08:42:00,18.7,7.5,29.60,WNW,293,12.5,19.2,61,0.00,,,0.00,WUHU216HW,2013-02-21 13:42:00,
2013-02-21 08:43:00,18.7,7.7,29.60,WNW,293,10.7,19.2,62,0.00,,,0.00,WUHU216HW,2013-02-21 13:43:00,
2013-02-21 08:45:00,18.7,7.5,29.60,NNW,338,10.7,19.2,61,0.00,,,0.00,WUHU216HW,2013-02-21 13:45:00,
2013-02-21 08:47:00,18.7,7.5,29.60,NW,315,9.2,19.2,61,0.00,,,0.00,WUHU216HW,2013-02-21 13:47:00,
2013-02-21 08:48:00,18.7,7.5,29.60,NW,315,10.5,19.2,61,0.00,,,0.00,WUHU216HW,2013-02-21 13:48:00,
2013-02-21 08:49:00,18.5,7.3,29.60,North,0,10.5,19.2,61,0.00,,,0.00,WUHU216HW,2013-02-21 13:49:00,
2013-02-21 08:50:00,18.7,7.5,29.60,NNW,338,13.0,15.7,61,0.00,,,0.00,WUHU216HW,2013-02-21 13:50:00,
2013-02-21 08:53:00,18.7,7.5,29.60,NNW,338,9.6,17.2,61,0.00,,,0.00,WUHU216HW,2013-02-21 13:53:00,
2013-02-21 08:54:00,18.7,7.5,29.60,NNW,338,10.7,17.2,61,0.00,,,0.00,WUHU216HW,2013-02-21 13:54:00,
2013-02-21 08:55:00,18.9,7.6,29.60,NNW,338,14.1,17.2,61,0.00,,,0.00,WUHU216HW,2013-02-21 13:55:00,
2013-02-21 08:58:00,19.1,7.7,29.61,North,0,12.1,17.2,61,0.00,,,0.00,WUHU216HW,2013-02-21 13:58:00,
2013-02-21 08:59:00,19.1,7.7,29.61,NNW,338,17.4,17.4,61,0.00,,,0.00,WUHU216HW,2013-02-21 13:59:00,
2013-02-21 09:00:00,19.1,7.7,29.61,NW,315,17.9,17.9,61,0.00,,,0.00,WUHU216HW,2013-02-21 14:00:00,
2013-02-21 09:04:00,19.1,7.7,29.61,North,0,11.9,18.1,61,0.00,,,0.00,WUHU216HW,2013-02-21 14:04:00,
2013-02-21 09:06:00,19.3,7.9,29.61,NNW,338,16.3,18.1,61,0.00,,,0.00,WUHU216HW,2013-02-21 14:06:00,
2013-02-21 09:09:00,19.3,7.9,29.61,NW,315,11.4,18.1,61,0.00,,,0.00,WUHU216HW,2013-02-21 14:09:00,
2013-02-21 09:11:00,19.3,7.9,29.61,North,0,15.2,20.4,61,0.00,,,0.00,WUHU216HW,2013-02-21 14:11:00,
2013-02-21 09:14:00,19.1,7.7,29.61,North,0,14.5,20.4,61,0.00,,,0.00,WUHU216HW,2013-02-21 14:14:00,
2013-02-21 09:16:00,19.1,7.7,29.61,NNW,338,11.4,20.4,61,0.00,,,0.00,WUHU216HW,2013-02-21 14:16:00,
2013-02-21 09:19:00,19.1,7.7,29.61,NW,315,10.5,20.4,61,0.00,,,0.00,WUHU216HW,2013-02-21 14:19:00,
2013-02-21 09:20:00,19.1,7.7,29.61,NW,315,7.6,20.4,61,0.00,,,0.00,WUHU216HW,2013-02-21 14:20:00,
2013-02-21 09:21:00,19.4,8.1,29.61,WNW,293,15.7,19.2,61,0.00,,,0.00,WUHU216HW,2013-02-21 14:21:00,
2013-02-21 09:24:00,19.6,8.3,29.62,NW,315,11.9,19.2,61,0.00,,,0.00,WUHU216HW,2013-02-21 14:24:00,
2013-02-21 09:25:00,19.6,8.3,29.62,North,0,12.1,19.2,61,0.00,,,0.00,WUHU216HW,2013-02-21 14:25:00,
2013-02-21 09:27:00,19.4,8.1,29.61,WNW,293,13.4,19.2,61,0.00,,,0.00,WUHU216HW,2013-02-21 14:27:00,
2013-02-21 09:29:00,19.4,8.1,29.61,NNW,338,10.5,19.2,61,0.00,,,0.00,WUHU216HW,2013-02-21 14:29:00,
2013-02-21 09:30:00,19.3,7.9,29.61,WSW,248,12.8,19.2,61,0.00,,,0.00,WUHU216HW,2013-02-21 14:30:00,
2013-02-21 09:32:00,19.3,8.3,29.61,WNW,293,10.5,19.0,62,0.00,,,0.00,WUHU216HW,2013-02-21 14:32:00,
2013-02-21 09:34:00,19.4,8.5,29.61,North,0,14.8,17.2,62,0.00,,,0.00,WUHU216HW,2013-02-21 14:34:00,
2013-02-21 09:35:00,19.4,8.5,29.61,NNW,338,5.6,17.2,62,0.00,,,0.00,WUHU216HW,2013-02-21 14:35:00,
2013-02-21 09:37:00,19.4,8.5,29.61,NNW,338,15.0,17.2,62,0.00,,,0.00,WUHU216HW,2013-02-21 14:37:00,
2013-02-21 09:39:00,19.4,8.5,29.62,NW,315,4.7,17.2,62,0.00,,,0.00,WUHU216HW,2013-02-21 14:39:00,
2013-02-21 09:40:00,19.4,8.5,29.62,North,0,7.8,17.2,62,0.00,,,0.00,WUHU216HW,2013-02-21 14:40:00,
2013-02-21 09:42:00,19.4,8.5,29.62,North,0,11.4,17.2,62,0.00,,,0.00,WUHU216HW,2013-02-21 14:42:00,
2013-02-21 09:45:00,19.4,8.5,29.62,NNW,338,8.9,15.0,62,0.00,,,0.00,WUHU216HW,2013-02-21 14:45:00,
2013-02-21 09:47:00,19.4,8.5,29.62,NW,315,11.0,15.0,62,0.00,,,0.00,WUHU216HW,2013-02-21 14:47:00,
2013-02-21 09:50:00,19.4,8.1,29.62,West,270,10.3,17.2,61,0.00,,,0.00,WUHU216HW,2013-02-21 14:50:00,
2013-02-21 09:52:00,19.3,7.9,29.62,NNW,338,14.5,25.1,61,0.00,,,0.00,WUHU216HW,2013-02-21 14:52:00,
2013-02-21 09:55:00,19.1,8.1,29.62,NW,315,8.3,25.1,62,0.00,,,0.00,WUHU216HW,2013-02-21 14:55:00,
2013-02-21 09:57:00,19.1,8.5,29.63,NW,315,9.2,25.1,63,0.00,,,0.00,WUHU216HW,2013-02-21 14:57:00,
2013-02-21 10:00:00,19.4,8.5,29.62,NW,315,7.6,25.1,62,0.00,,,0.00,WUHU216HW,2013-02-21 15:00:00,
2013-02-21 10:02:00,19.6,8.7,29.62,NNW,338,9.4,19.2,62,0.00,,,0.00,WUHU216HW,2013-02-21 15:02:00,
2013-02-21 10:05:00,19.3,8.3,29.62,NNW,338,12.3,15.0,62,0.00,,,0.00,WUHU216HW,2013-02-21 15:05:00,
2013-02-21 10:07:00,19.3,8.3,29.63,NW,315,9.2,17.4,62,0.00,,,0.00,WUHU216HW,2013-02-21 15:07:00,
2013-02-21 10:10:00,19.1,8.1,29.63,NNW,338,8.1,17.4,62,0.00,,,0.00,WUHU216HW,2013-02-21 15:10:00,
2013-02-21 10:12:00,19.3,8.3,29.63,NNW,338,9.2,17.4,62,0.00,,,0.00,WUHU216HW,2013-02-21 15:12:00,
2013-02-21 10:15:00,19.3,7.9,29.63,NW,315,8.5,17.4,61,0.00,,,0.00,WUHU216HW,2013-02-21 15:15:00,
2013-02-21 10:16:00,19.3,7.9,29.63,NW,315,8.5,17.4,61,0.00,,,0.00,WUHU216HW,2013-02-21 15:16:00,
2013-02-21 10:17:00,19.3,8.3,29.63,WNW,293,6.9,16.1,62,0.00,,,0.00,WUHU216HW,2013-02-21 15:17:00,
2013-02-21 10:21:00,19.6,8.3,29.64,NW,315,13.4,16.1,61,0.00,,,0.00,WUHU216HW,2013-02-21 15:21:00,
2013-02-21 10:22:00,19.6,8.3,29.64,NW,315,10.5,16.1,61,0.00,,,0.00,WUHU216HW,2013-02-21 15:22:00,
2013-02-21 10:26:00,19.6,8.3,29.64,NNW,338,15.0,15.4,61,0.00,,,0.00,WUHU216HW,2013-02-21 15:26:00,
2013-02-21 10:27:00,19.4,8.1,29.64,NNW,338,14.8,15.4,61,0.00,,,0.00,WUHU216HW,2013-02-21 15:27:00,
2013-02-21 10:31:00,19.3,7.9,29.65,NW,315,8.3,15.4,61,0.00,,,0.00,WUHU216HW,2013-02-21 15:31:00,
2013-02-21 10:32:00,19.3,7.9,29.65,NW,315,9.8,17.2,61,0.00,,,0.00,WUHU216HW,2013-02-21 15:32:00,
2013-02-21 10:36:00,19.3,7.9,29.65,WNW,293,11.0,18.3,61,0.02,,,0.02,WUHU216HW,2013-02-21 15:36:00,
2013-02-21 10:38:00,19.3,8.3,29.65,NNW,338,12.3,18.3,62,0.02,,,0.02,WUHU216HW,2013-02-21 15:38:00,
2013-02-21 10:41:00,19.4,8.5,29.65,NW,315,9.6,18.3,62,0.02,,,0.02,WUHU216HW,2013-02-21 15:41:00,
2013-02-21 10:43:00,19.4,8.5,29.65,NNW,338,9.6,18.3,62,0.02,,,0.02,WUHU216HW,2013-02-21 15:43:00,
2013-02-21 10:46:00,19.1,8.1,29.66,NNW,338,14.3,15.4,62,0.02,,,0.02,WUHU216HW,2013-02-21 15:46:00,
2013-02-21 10:47:00,19.1,7.7,29.66,NNW,338,10.7,17.2,61,0.02,,,0.02,WUHU216HW,2013-02-21 15:47:00,
2013-02-21 10:48:00,19.1,8.1,29.66,WNW,293,16.3,17.2,62,0.02,,,0.02,WUHU216HW,2013-02-21 15:48:00,
2013-02-21 10:51:00,19.1,8.1,29.66,NNW,338,9.4,17.2,62,0.02,,,0.02,WUHU216HW,2013-02-21 15:51:00,
2013-02-21 10:52:00,19.1,8.1,29.66,NNW,338,7.6,17.2,62,0.02,,,0.02,WUHU216HW,2013-02-21 15:52:00,
2013-02-21 10:53:00,19.1,8.1,29.66,NW,315,8.1,17.2,62,0.02,,,0.02,WUHU216HW,2013-02-21 15:53:00,
2013-02-21 10:56:00,19.6,8.3,29.66,NW,315,11.9,17.2,61,0.02,,,0.02,WUHU216HW,2013-02-21 15:56:00,
2013-02-21 10:57:00,19.6,8.3,29.66,WNW,293,13.2,16.3,61,0.02,,,0.02,WUHU216HW,2013-02-21 15:57:00,
2013-02-21 10:58:00,19.4,8.1,29.66,West,270,19.5,19.5,61,0.02,,,0.02,WUHU216HW,2013-02-21 15:58:00,
2013-02-21 11:02:00,19.6,8.7,29.67,NW,315,14.1,19.5,62,0.02,,,0.02,WUHU216HW,2013-02-21 16:02:00,
2013-02-21 11:03:00,19.8,8.5,29.67,NW,315,15.7,19.5,61,0.02,,,0.02,WUHU216HW,2013-02-21 16:03:00,
2013-02-21 11:07:00,19.4,8.1,29.67,NW,315,9.6,21.5,61,0.02,,,0.02,WUHU216HW,2013-02-21 16:07:00,
2013-02-21 11:08:00,19.3,7.9,29.67,NW,315,17.2,21.5,61,0.02,,,0.02,WUHU216HW,2013-02-21 16:08:00,
2013-02-21 11:12:00,19.1,7.7,29.67,NW,315,15.7,21.5,61,0.02,,,0.02,WUHU216HW,2013-02-21 16:12:00,
2013-02-21 11:14:00,19.1,7.7,29.67,NNW,338,16.1,21.5,61,0.02,,,0.02,WUHU216HW,2013-02-21 16:14:00,
2013-02-21 11:17:00,19.1,7.7,29.67,NW,315,11.4,17.2,61,0.02,,,0.02,WUHU216HW,2013-02-21 16:17:00,
2013-02-21 11:19:00,18.9,7.6,29.67,NW,315,11.4,18.1,61,0.02,,,0.02,WUHU216HW,2013-02-21 16:19:00,
2013-02-21 11:22:00,18.5,7.3,29.67,NW,315,10.5,18.1,61,0.02,,,0.02,WUHU216HW,2013-02-21 16:22:00,
2013-02-21 11:23:00,18.5,7.3,29.67,North,0,17.2,18.1,61,0.02,,,0.02,WUHU216HW,2013-02-21 16:23:00,
2013-02-21 11:24:00,18.4,7.1,29.67,NNW,338,16.3,19.0,61,0.02,,,0.02,WUHU216HW,2013-02-21 16:24:00,
2013-02-21 11:27:00,18.5,7.7,29.68,NW,315,11.4,19.0,62,0.02,,,0.02,WUHU216HW,2013-02-21 16:27:00,
2013-02-21 11:28:00,18.5,7.7,29.68,NNW,338,10.5,19.0,62,0.02,,,0.02,WUHU216HW,2013-02-21 16:28:00,
2013-02-21 11:29:00,18.5,7.3,29.67,NNW,338,14.3,19.5,61,0.02,,,0.02,WUHU216HW,2013-02-21 16:29:00,
2013-02-21 11:32:00,18.4,7.1,29.67,North,0,17.0,22.4,61,0.00,,,0.02,WUHU216HW,2013-02-21 16:32:00,
2013-02-21 11:33:00,18.4,7.1,29.67,WNW,293,20.1,23.0,61,0.00,,,0.02,WUHU216HW,2013-02-21 16:33:00,
2013-02-21 11:34:00,18.4,7.1,29.68,NW,315,15.7,23.0,61,0.00,,,0.02,WUHU216HW,2013-02-21 16:34:00,
2013-02-21 11:37:00,18.2,6.9,29.68,North,0,10.1,23.0,61,0.00,,,0.02,WUHU216HW,2013-02-21 16:37:00,
2013-02-21 11:38:00,18.2,7.3,29.68,North,0,12.8,23.0,62,0.00,,,0.02,WUHU216HW,2013-02-21 16:38:00,
2013-02-21 11:39:00,18.2,6.9,29.68,NNW,338,17.4,23.0,61,0.00,,,0.02,WUHU216HW,2013-02-21 16:39:00,
2013-02-21 11:42:00,17.8,6.7,29.68,WSW,248,15.2,23.0,61,0.01,,,0.03,WUHU216HW,2013-02-21 16:42:00,
2013-02-21 11:43:00,18.0,6.8,29.68,NNW,338,15.0,23.0,61,0.01,,,0.03,WUHU216HW,2013-02-21 16:43:00,
2013-02-21 11:44:00,18.0,6.8,29.68,NNW,338,11.2,23.0,61,0.01,,,0.03,WUHU216HW,2013-02-21 16:44:00,
2013-02-21 11:47:00,18.2,6.9,29.68,NW,315,17.2,23.0,61,0.01,,,0.03,WUHU216HW,2013-02-21 16:47:00,
2013-02-21 11:48:00,18.2,6.9,29.68,North,0,15.9,23.0,61,0.01,,,0.03,WUHU216HW,2013-02-21 16:48:00,
2013-02-21 11:50:00,18.0,6.8,29.68,NNW,338,10.5,23.0,61,0.01,,,0.03,WUHU216HW,2013-02-21 16:50:00,
2013-02-21 11:53:00,18.4,7.1,29.68,NNW,338,10.3,21.0,61,0.01,,,0.03,WUHU216HW,2013-02-21 16:53:00,
2013-02-21 11:55:00,18.4,7.1,29.68,NW,315,19.5,21.0,61,0.01,,,0.03,WUHU216HW,2013-02-21 16:55:00,
2013-02-21 11:58:00,18.7,7.5,29.67,NNW,338,9.6,21.0,61,0.01,,,0.03,WUHU216HW,2013-02-21 16:58:00,
2013-02-21 12:01:00,19.1,8.1,29.68,NW,315,5.4,20.8,62,0.01,,,0.03,WUHU216HW,2013-02-21 17:01:00,
2013-02-21 12:03:00,19.1,7.7,29.68,NW,315,11.2,20.8,61,0.01,,,0.03,WUHU216HW,2013-02-21 17:03:00,
2013-02-21 12:04:00,19.3,7.9,29.68,NW,315,15.0,20.8,61,0.01,,,0.03,WUHU216HW,2013-02-21 17:04:00,
2013-02-21 12:06:00,19.1,7.7,29.67,NW,315,9.2,18.1,61,0.01,,,0.03,WUHU216HW,2013-02-21 17:06:00,
2013-02-21 12:08:00,19.3,7.9,29.67,NNW,338,7.6,18.1,61,0.01,,,0.03,WUHU216HW,2013-02-21 17:08:00,
2013-02-21 12:09:00,19.3,7.9,29.67,NW,315,11.4,18.1,61,0.01,,,0.03,WUHU216HW,2013-02-21 17:09:00,
2013-02-21 12:11:00,19.3,7.9,29.67,North,0,13.0,18.1,61,0.01,,,0.03,WUHU216HW,2013-02-21 17:11:00,
2013-02-21 12:13:00,19.1,7.7,29.67,NNW,338,7.6,17.7,61,0.01,,,0.03,WUHU216HW,2013-02-21 17:13:00,
2013-02-21 12:14:00,19.1,7.7,29.67,NNW,338,7.2,17.7,61,0.01,,,0.03,WUHU216HW,2013-02-21 17:14:00,
2013-02-21 12:16:00,19.3,7.9,29.67,NNW,338,18.6,18.6,61,0.01,,,0.03,WUHU216HW,2013-02-21 17:16:00,
2013-02-21 12:18:00,19.1,7.7,29.68,NNW,338,6.3,19.7,61,0.01,,,0.03,WUHU216HW,2013-02-21 17:18:00,
2013-02-21 12:19:00,19.1,7.7,29.68,NNW,338,10.5,19.7,61,0.01,,,0.03,WUHU216HW,2013-02-21 17:19:00,
2013-02-21 12:21:00,19.3,8.3,29.67,NW,315,12.8,19.7,62,0.01,,,0.03,WUHU216HW,2013-02-21 17:21:00,
2013-02-21 12:23:00,19.3,7.9,29.67,NNW,338,9.6,19.7,61,0.03,,,0.05,WUHU216HW,2013-02-21 17:23:00,
2013-02-21 12:24:00,19.3,7.9,29.67,NW,315,10.3,19.7,61,0.03,,,0.05,WUHU216HW,2013-02-21 17:24:00,
2013-02-21 12:26:00,19.1,7.4,29.68,NW,315,12.5,19.7,60,0.03,,,0.05,WUHU216HW,2013-02-21 17:26:00,
2013-02-21 12:28:00,19.1,7.4,29.68,NNW,338,11.9,18.3,60,0.03,,,0.05,WUHU216HW,2013-02-21 17:28:00,
2013-02-21 12:29:00,18.9,6.8,29.68,North,0,24.6,24.6,59,0.03,,,0.05,WUHU216HW,2013-02-21 17:29:00,
2013-02-21 12:31:00,18.7,7.1,29.68,NW,315,14.3,24.6,60,0.03,,,0.05,WUHU216HW,2013-02-21 17:31:00,
2013-02-21 12:34:00,18.5,6.9,29.68,NNW,338,9.2,24.6,60,0.03,,,0.05,WUHU216HW,2013-02-21 17:34:00,
2013-02-21 12:37:00,18.7,7.1,29.68,NW,315,11.4,24.6,60,0.03,,,0.05,WUHU216HW,2013-02-21 17:37:00,
2013-02-21 12:39:00,18.7,7.1,29.68,NNW,338,19.7,24.6,60,0.03,,,0.05,WUHU216HW,2013-02-21 17:39:00,
2013-02-21 12:42:00,18.5,6.9,29.68,NNW,338,15.0,19.7,60,0.02,,,0.05,WUHU216HW,2013-02-21 17:42:00,
2013-02-21 12:44:00,18.4,6.8,29.68,NNW,338,17.9,19.7,60,0.02,,,0.05,WUHU216HW,2013-02-21 17:44:00,
2013-02-21 12:47:00,18.4,7.1,29.68,North,0,18.1,19.7,61,0.02,,,0.05,WUHU216HW,2013-02-21 17:47:00,
2013-02-21 12:49:00,18.4,7.1,29.68,NNE,23,10.7,19.7,61,0.02,,,0.05,WUHU216HW,2013-02-21 17:49:00,
2013-02-21 12:52:00,18.2,6.9,29.68,North,0,12.1,19.7,61,0.02,,,0.05,WUHU216HW,2013-02-21 17:52:00,
2013-02-21 12:54:00,18.2,6.9,29.68,North,0,10.7,18.1,61,0.02,,,0.05,WUHU216HW,2013-02-21 17:54:00,
2013-02-21 12:57:00,18.4,7.1,29.68,North,0,7.6,17.2,61,0.02,,,0.05,WUHU216HW,2013-02-21 17:57:00,
2013-02-21 12:59:00,18.4,7.1,29.68,NW,315,10.1,17.2,61,0.02,,,0.05,WUHU216HW,2013-02-21 17:59:00,
2013-02-21 13:00:00,18.4,7.1,29.68,NW,315,10.1,17.2,61,0.02,,,0.05,WUHU216HW,2013-02-21 18:00:00,
2013-02-21 13:02:00,18.4,7.1,29.68,NNW,338,13.4,16.8,61,0.02,,,0.05,WUHU216HW,2013-02-21 18:02:00,
2013-02-21 13:04:00,18.5,7.3,29.68,NW,315,7.6,23.0,61,0.02,,,0.05,WUHU216HW,2013-02-21 18:04:00,
2013-02-21 13:05:00,18.7,7.5,29.68,NNW,338,8.9,23.0,61,0.02,,,0.05,WUHU216HW,2013-02-21 18:05:00,
2013-02-21 13:07:00,18.7,7.5,29.68,North,0,10.5,23.0,61,0.02,,,0.05,WUHU216HW,2013-02-21 18:07:00,
2013-02-21 13:10:00,18.9,7.6,29.69,NW,315,16.3,23.0,61,0.02,,,0.05,WUHU216HW,2013-02-21 18:10:00,
2013-02-21 13:12:00,18.7,7.5,29.68,NW,315,13.2,23.0,61,0.02,,,0.05,WUHU216HW,2013-02-21 18:12:00,
2013-02-21 13:15:00,18.5,7.3,29.68,WNW,293,17.2,17.2,61,0.02,,,0.05,WUHU216HW,2013-02-21 18:15:00,
2013-02-21 13:16:00,18.5,7.3,29.69,NNW,338,11.0,17.9,61,0.02,,,0.05,WUHU216HW,2013-02-21 18:16:00,
2013-02-21 13:17:00,18.4,7.1,29.69,NW,315,10.1,17.9,61,0.02,,,0.05,WUHU216HW,2013-02-21 18:17:00,
2013-02-21 13:20:00,18.4,7.1,29.68,NNW,338,8.7,17.9,61,0.00,,,0.05,WUHU216HW,2013-02-21 18:20:00,
2013-02-21 13:21:00,18.4,7.1,29.68,NNW,338,8.1,17.9,61,0.00,,,0.05,WUHU216HW,2013-02-21 18:21:00,
2013-02-21 13:22:00,18.4,7.1,29.69,NNW,338,8.5,17.9,61,0.00,,,0.05,WUHU216HW,2013-02-21 18:22:00,
2013-02-21 13:25:00,18.4,7.1,29.69,NNW,338,15.0,17.9,61,0.00,,,0.05,WUHU216HW,2013-02-21 18:25:00,
2013-02-21 13:26:00,18.5,7.3,29.69,NNW,338,13.2,17.0,61,0.00,,,0.05,WUHU216HW,2013-02-21 18:26:00,
2013-02-21 13:28:00,18.4,7.1,29.69,NNW,338,11.4,18.3,61,0.00,,,0.05,WUHU216HW,2013-02-21 18:28:00,
2013-02-21 13:30:00,18.4,7.1,29.70,NW,315,11.0,18.3,61,0.00,,,0.05,WUHU216HW,2013-02-21 18:30:00,
2013-02-21 13:31:00,18.4,7.1,29.70,NNW,338,10.5,18.3,61,0.00,,,0.05,WUHU216HW,2013-02-21 18:31:00,
2013-02-21 13:33:00,18.4,7.1,29.70,NNW,338,6.7,18.3,61,0.00,,,0.05,WUHU216HW,2013-02-21 18:33:00,
2013-02-21 13:35:00,18.4,7.1,29.69,NW,315,10.1,18.3,61,0.00,,,0.05,WUHU216HW,2013-02-21 18:35:00,
2013-02-21 13:36:00,18.4,7.1,29.69,WNW,293,14.8,18.3,61,0.00,,,0.05,WUHU216HW,2013-02-21 18:36:00,
2013-02-21 13:38:00,18.4,7.1,29.69,NW,315,10.3,16.3,61,0.00,,,0.05,WUHU216HW,2013-02-21 18:38:00,
2013-02-21 13:41:00,18.4,7.1,29.69,NNW,338,12.8,15.2,61,0.00,,,0.05,WUHU216HW,2013-02-21 18:41:00,
2013-02-21 13:42:00,18.4,7.1,29.70,WNW,293,5.4,15.2,61,0.00,,,0.05,WUHU216HW,2013-02-21 18:42:00,
2013-02-21 13:43:00,18.5,7.3,29.70,North,0,6.7,15.2,61,0.00,,,0.05,WUHU216HW,2013-02-21 18:43:00,
2013-02-21 13:46:00,18.7,7.5,29.70,NNW,338,11.0,14.8,61,0.00,,,0.05,WUHU216HW,2013-02-21 18:46:00,
2013-02-21 13:47:00,18.7,7.5,29.70,NNW,338,8.5,14.3,61,0.00,,,0.05,WUHU216HW,2013-02-21 18:47:00,
2013-02-21 13:48:00,18.5,7.3,29.70,North,0,12.1,15.2,61,0.00,,,0.05,WUHU216HW,2013-02-21 18:48:00,
2013-02-21 13:51:00,18.7,7.5,29.70,NNW,338,7.4,15.2,61,0.00,,,0.05,WUHU216HW,2013-02-21 18:51:00,
2013-02-21 13:52:00,18.7,7.5,29.70,West,270,16.6,16.6,61,0.00,,,0.05,WUHU216HW,2013-02-21 18:52:00,
2013-02-21 13:53:00,18.5,7.3,29.70,NNW,338,12.8,17.9,61,0.00,,,0.05,WUHU216HW,2013-02-21 18:53:00,
2013-02-21 13:56:00,18.5,7.3,29.70,West,270,11.9,18.8,61,0.00,,,0.05,WUHU216HW,2013-02-21 18:56:00,
2013-02-21 13:57:00,18.5,7.3,29.70,NNW,338,10.5,18.8,61,0.00,,,0.05,WUHU216HW,2013-02-21 18:57:00,
2013-02-21 13:58:00,18.4,7.1,29.70,NW,315,11.2,18.8,61,0.00,,,0.05,WUHU216HW,2013-02-21 18:58:00,
2013-02-21 14:01:00,18.5,7.3,29.70,NNW,338,8.1,18.8,61,0.00,,,0.05,WUHU216HW,2013-02-21 19:01:00,
2013-02-21 14:02:00,18.5,7.3,29.70,NW,315,12.3,18.8,61,0.00,,,0.05,WUHU216HW,2013-02-21 19:02:00,
2013-02-21 14:03:00,18.7,7.5,29.70,NW,315,10.5,18.8,61,0.00,,,0.05,WUHU216HW,2013-02-21 19:03:00,
2013-02-21 14:06:00,18.4,7.1,29.70,WSW,248,18.8,21.7,61,0.00,,,0.05,WUHU216HW,2013-02-21 19:06:00,
2013-02-21 14:07:00,18.2,6.9,29.70,West,270,11.4,21.7,61,0.00,,,0.05,WUHU216HW,2013-02-21 19:07:00,
2013-02-21 14:08:00,18.2,6.9,29.70,WNW,293,17.7,21.7,61,0.00,,,0.05,WUHU216HW,2013-02-21 19:08:00,
2013-02-21 14:11:00,18.2,6.9,29.70,NW,315,11.4,21.7,61,0.00,,,0.05,WUHU216HW,2013-02-21 19:11:00,
2013-02-21 14:12:00,18.2,7.3,29.70,North,0,13.0,21.7,62,0.00,,,0.05,WUHU216HW,2013-02-21 19:12:00,
2013-02-21 14:13:00,18.4,7.5,29.70,NW,315,10.5,21.7,62,0.00,,,0.05,WUHU216HW,2013-02-21 19:13:00,
2013-02-21 14:16:00,19.1,8.1,29.70,WNW,293,10.7,21.5,62,0.00,,,0.05,WUHU216HW,2013-02-21 19:16:00,
2013-02-21 14:17:00,19.1,8.1,29.70,NW,315,10.5,21.5,62,0.00,,,0.05,WUHU216HW,2013-02-21 19:17:00,
2013-02-21 14:18:00,19.3,8.3,29.70,NNW,338,5.6,20.8,62,0.00,,,0.05,WUHU216HW,2013-02-21 19:18:00,
2013-02-21 14:21:00,19.6,8.3,29.71,WNW,293,15.2,19.7,61,0.00,,,0.05,WUHU216HW,2013-02-21 19:21:00,
2013-02-21 14:22:00,19.8,8.5,29.71,WNW,293,8.7,19.7,61,0.00,,,0.05,WUHU216HW,2013-02-21 19:22:00,
2013-02-21 14:23:00,19.6,8.3,29.70,NW,315,12.3,19.7,61,0.00,,,0.05,WUHU216HW,2013-02-21 19:23:00,
2013-02-21 14:26:00,19.8,8.5,29.70,NNW,338,6.7,19.7,61,0.00,,,0.05,WUHU216HW,2013-02-21 19:26:00,
2013-02-21 14:27:00,19.8,8.5,29.70,North,0,9.2,19.7,61,0.00,,,0.05,WUHU216HW,2013-02-21 19:27:00,
2013-02-21 14:29:00,19.8,8.5,29.70,NW,315,13.4,19.7,61,0.00,,,0.05,WUHU216HW,2013-02-21 19:29:00,
2013-02-21 14:31:00,19.4,8.1,29.70,NNW,338,9.2,17.9,61,0.00,,,0.05,WUHU216HW,2013-02-21 19:31:00,
2013-02-21 14:32:00,19.3,7.9,29.71,NNW,338,6.0,15.9,61,0.00,,,0.05,WUHU216HW,2013-02-21 19:32:00,
2013-02-21 14:34:00,19.4,8.1,29.71,NW,315,8.5,15.9,61,0.00,,,0.05,WUHU216HW,2013-02-21 19:34:00,
2013-02-21 14:36:00,19.6,8.3,29.71,NNW,338,8.3,15.9,61,0.00,,,0.05,WUHU216HW,2013-02-21 19:36:00,
2013-02-21 14:37:00,19.8,8.5,29.71,WNW,293,8.9,15.9,61,0.00,,,0.05,WUHU216HW,2013-02-21 19:37:00,
2013-02-21 14:39:00,19.6,8.3,29.71,WNW,293,12.8,16.8,61,0.00,,,0.05,WUHU216HW,2013-02-21 19:39:00,
2013-02-21 14:42:00,19.4,8.1,29.71,NW,315,15.2,16.8,61,0.00,,,0.05,WUHU216HW,2013-02-21 19:42:00,
2013-02-21 14:43:00,19.6,8.3,29.71,NNW,338,7.2,16.8,61,0.00,,,0.05,WUHU216HW,2013-02-21 19:43:00,
2013-02-21 14:44:00,19.6,8.3,29.71,NNW,338,10.3,16.8,61,0.00,,,0.05,WUHU216HW,2013-02-21 19:44:00,
2013-02-21 14:47:00,19.8,8.5,29.71,North,0,8.7,16.8,61,0.00,,,0.05,WUHU216HW,2013-02-21 19:47:00,
2013-02-21 14:48:00,19.8,8.5,29.71,NW,315,11.4,16.8,61,0.00,,,0.05,WUHU216HW,2013-02-21 19:48:00,
2013-02-21 14:49:00,20.0,8.7,29.71,NW,315,8.7,15.2,61,0.00,,,0.05,WUHU216HW,2013-02-21 19:49:00,
2013-02-21 14:53:00,19.8,8.5,29.71,NNW,338,12.1,14.3,61,0.00,,,0.05,WUHU216HW,2013-02-21 19:53:00,
2013-02-21 14:54:00,19.8,8.5,29.71,NNW,338,10.3,15.7,61,0.00,,,0.05,WUHU216HW,2013-02-21 19:54:00,
2013-02-21 14:58:00,19.8,8.5,29.71,NW,315,9.8,15.7,61,0.00,,,0.05,WUHU216HW,2013-02-21 19:58:00,
2013-02-21 14:59:00,19.8,8.5,29.72,NNW,338,5.6,15.7,61,0.00,,,0.05,WUHU216HW,2013-02-21 19:59:00,
2013-02-21 15:03:00,19.6,8.3,29.72,NW,315,10.3,12.5,61,0.00,,,0.05,WUHU216HW,2013-02-21 20:03:00,
2013-02-21 15:04:00,19.4,8.1,29.72,NW,315,7.4,12.5,61,0.00,,,0.05,WUHU216HW,2013-02-21 20:04:00,
2013-02-21 15:05:00,19.4,8.5,29.72,NNW,338,8.9,12.5,62,0.00,,,0.05,WUHU216HW,2013-02-21 20:05:00,
2013-02-21 15:08:00,19.1,8.1,29.72,NW,315,8.5,12.5,62,0.00,,,0.05,WUHU216HW,2013-02-21 20:08:00,
2013-02-21 15:09:00,19.1,8.1,29.72,NNW,338,8.5,12.5,62,0.00,,,0.05,WUHU216HW,2013-02-21 20:09:00,
2013-02-21 15:10:00,19.1,8.1,29.72,NNW,338,13.6,15.4,62,0.00,,,0.05,WUHU216HW,2013-02-21 20:10:00,
2013-02-21 15:13:00,18.9,8.3,29.72,NNW,338,10.5,19.5,63,0.00,,,0.05,WUHU216HW,2013-02-21 20:13:00,
2013-02-21 15:14:00,18.9,8.3,29.72,NNW,338,10.5,19.5,63,0.00,,,0.05,WUHU216HW,2013-02-21 20:14:00,
2013-02-21 15:15:00,18.9,8.3,29.73,NW,315,10.1,19.5,63,0.00,,,0.05,WUHU216HW,2013-02-21 20:15:00,
2013-02-21 15:18:00,18.9,8.3,29.72,NW,315,13.6,19.5,63,0.00,,,0.05,WUHU216HW,2013-02-21 20:18:00,
2013-02-21 15:19:00,18.9,8.3,29.72,West,270,15.9,19.5,63,0.00,,,0.05,WUHU216HW,2013-02-21 20:19:00,
2013-02-21 15:20:00,18.7,7.7,29.72,NW,315,11.0,19.5,62,0.00,,,0.05,WUHU216HW,2013-02-21 20:20:00,
2013-02-21 15:24:00,18.4,7.5,29.73,West,270,13.4,19.2,62,0.00,,,0.05,WUHU216HW,2013-02-21 20:24:00,
2013-02-21 15:25:00,18.5,7.9,29.73,NW,315,18.3,19.2,63,0.00,,,0.05,WUHU216HW,2013-02-21 20:25:00,
2013-02-21 15:29:00,18.5,7.9,29.73,West,270,10.5,19.2,63,0.00,,,0.05,WUHU216HW,2013-02-21 20:29:00,
2013-02-21 15:30:00,18.5,7.9,29.73,WSW,248,10.1,19.2,63,0.00,,,0.05,WUHU216HW,2013-02-21 20:30:00,
2013-02-21 15:34:00,18.5,7.9,29.73,West,270,6.0,18.3,63,0.00,,,0.05,WUHU216HW,2013-02-21 20:34:00,
2013-02-21 15:35:00,18.5,7.9,29.73,NNW,338,4.0,17.2,63,0.00,,,0.05,WUHU216HW,2013-02-21 20:35:00,
2013-02-21 15:40:00,18.5,7.9,29.74,NNW,338,5.6,15.9,63,0.00,,,0.05,WUHU216HW,2013-02-21 20:40:00,
2013-02-21 15:45:00,18.5,7.9,29.74,NNW,338,9.8,17.2,63,0.00,,,0.05,WUHU216HW,2013-02-21 20:45:00,
2013-02-21 15:50:00,18.5,7.9,29.75,NW,315,11.0,17.2,63,0.00,,,0.05,WUHU216HW,2013-02-21 20:50:00,
2013-02-21 15:55:00,18.4,7.8,29.74,North,0,17.9,17.9,63,0.00,,,0.05,WUHU216HW,2013-02-21 20:55:00,
2013-02-21 16:00:00,18.0,7.5,29.75,NNW,338,7.2,18.6,63,0.00,,,0.05,WUHU216HW,2013-02-21 21:00:00,
2013-02-21 16:01:00,18.0,7.8,29.75,North,0,14.5,18.6,64,0.00,,,0.05,WUHU216HW,2013-02-21 21:01:00,
2013-02-21 16:05:00,17.8,7.7,29.75,NNW,338,7.8,18.6,64,0.00,,,0.05,WUHU216HW,2013-02-21 21:05:00,
2013-02-21 16:06:00,18.0,7.8,29.75,NNW,338,8.5,15.4,64,0.00,,,0.05,WUHU216HW,2013-02-21 21:06:00,
2013-02-21 16:10:00,18.0,7.8,29.76,NNW,338,16.1,16.1,64,0.00,,,0.05,WUHU216HW,2013-02-21 21:10:00,
2013-02-21 16:11:00,18.0,7.8,29.76,West,270,9.8,16.1,64,0.00,,,0.05,WUHU216HW,2013-02-21 21:11:00,
2013-02-21 16:15:00,18.0,7.8,29.76,NW,315,7.2,16.1,64,0.00,,,0.05,WUHU216HW,2013-02-21 21:15:00,
2013-02-21 16:16:00,18.0,7.8,29.76,NNW,338,8.7,16.1,64,0.00,,,0.05,WUHU216HW,2013-02-21 21:16:00,
2013-02-21 16:20:00,18.2,8.0,29.76,NNW,338,15.9,22.6,64,0.00,,,0.05,WUHU216HW,2013-02-21 21:20:00,
2013-02-21 16:21:00,18.4,8.1,29.76,North,0,5.6,22.6,64,0.00,,,0.05,WUHU216HW,2013-02-21 21:21:00,
2013-02-21 16:25:00,18.5,7.9,29.76,NNW,338,8.1,22.6,63,0.00,,,0.05,WUHU216HW,2013-02-21 21:25:00,
2013-02-21 16:26:00,18.5,7.9,29.76,North,0,8.5,22.6,63,0.00,,,0.05,WUHU216HW,2013-02-21 21:26:00,
2013-02-21 16:30:00,18.5,7.9,29.77,WNW,293,10.7,14.8,63,0.00,,,0.05,WUHU216HW,2013-02-21 21:30:00,
2013-02-21 16:31:00,18.5,7.9,29.77,WNW,293,10.7,14.8,63,0.00,,,0.05,WUHU216HW,2013-02-21 21:31:00,
2013-02-21 16:32:00,18.5,7.9,29.77,North,0,12.8,14.8,63,0.00,,,0.05,WUHU216HW,2013-02-21 21:32:00,
2013-02-21 16:36:00,18.4,7.8,29.77,NW,315,17.9,17.9,63,0.00,,,0.05,WUHU216HW,2013-02-21 21:36:00,
2013-02-21 16:37:00,18.4,8.1,29.77,NNW,338,6.5,17.9,64,0.00,,,0.05,WUHU216HW,2013-02-21 21:37:00,
2013-02-21 16:41:00,18.7,8.5,29.77,WNW,293,6.3,17.9,64,0.00,,,0.05,WUHU216HW,2013-02-21 21:41:00,
2013-02-21 16:42:00,18.5,8.3,29.77,SW,225,7.4,17.9,64,0.00,,,0.05,WUHU216HW,2013-02-21 21:42:00,
2013-02-21 16:46:00,19.1,8.8,29.77,NW,315,9.8,18.3,64,0.00,,,0.05,WUHU216HW,2013-02-21 21:46:00,
2013-02-21 16:47:00,19.1,8.8,29.77,NNW,338,9.2,18.3,64,0.00,,,0.05,WUHU216HW,2013-02-21 21:47:00,
2013-02-21 16:51:00,19.1,8.8,29.78,WNW,293,10.7,18.3,64,0.00,,,0.05,WUHU216HW,2013-02-21 21:51:00,
2013-02-21 16:52:00,19.1,8.8,29.78,NNW,338,7.2,18.3,64,0.00,,,0.05,WUHU216HW,2013-02-21 21:52:00,
2013-02-21 16:56:00,19.1,8.8,29.78,NW,315,7.6,13.2,64,0.00,,,0.05,WUHU216HW,2013-02-21 21:56:00,
2013-02-21 16:57:00,19.1,8.8,29.78,NNW,338,4.9,12.5,64,0.00,,,0.05,WUHU216HW,2013-02-21 21:57:00,
2013-02-21 16:58:00,19.1,8.8,29.78,WNW,293,14.1,14.1,64,0.00,,,0.05,WUHU216HW,2013-02-21 21:58:00,
2013-02-21 17:01:00,18.9,8.7,29.78,NNW,338,5.4,14.5,64,0.00,,,0.05,WUHU216HW,2013-02-21 22:01:00,
2013-02-21 17:02:00,18.9,8.7,29.78,NNW,338,5.4,14.5,64,0.00,,,0.05,WUHU216HW,2013-02-21 22:02:00,
2013-02-21 17:03:00,18.7,8.8,29.78,NNW,338,2.2,14.5,65,0.00,,,0.05,WUHU216HW,2013-02-21 22:03:00,
2013-02-21 17:06:00,18.7,8.5,29.78,WNW,293,8.3,14.5,64,0.00,,,0.05,WUHU216HW,2013-02-21 22:06:00,
2013-02-21 17:07:00,18.5,8.3,29.78,WNW,293,7.4,14.5,64,0.00,,,0.05,WUHU216HW,2013-02-21 22:07:00,
2013-02-21 17:08:00,18.5,8.3,29.78,NNW,338,2.9,14.5,64,0.00,,,0.05,WUHU216HW,2013-02-21 22:08:00,
2013-02-21 17:11:00,18.4,8.1,29.79,NW,315,5.4,10.7,64,0.00,,,0.05,WUHU216HW,2013-02-21 22:11:00,
2013-02-21 17:12:00,18.5,8.3,29.79,NNW,338,3.4,10.7,64,0.00,,,0.05,WUHU216HW,2013-02-21 22:12:00,
2013-02-21 17:13:00,18.4,8.1,29.79,NNW,338,5.4,10.7,64,0.00,,,0.05,WUHU216HW,2013-02-21 22:13:00,
2013-02-21 17:16:00,18.4,8.5,29.79,North,0,4.9,10.7,65,0.00,,,0.05,WUHU216HW,2013-02-21 22:16:00,
2013-02-21 17:17:00,18.2,8.3,29.79,WNW,293,3.4,10.7,65,0.00,,,0.05,WUHU216HW,2013-02-21 22:17:00,
2013-02-21 17:19:00,18.2,8.3,29.79,NW,315,5.8,10.7,65,0.00,,,0.05,WUHU216HW,2013-02-21 22:19:00,
2013-02-21 17:21:00,18.0,8.2,29.79,North,0,8.5,8.5,65,0.00,,,0.05,WUHU216HW,2013-02-21 22:21:00,
2013-02-21 17:22:00,17.8,8.0,29.79,North,0,4.7,8.5,65,0.00,,,0.05,WUHU216HW,2013-02-21 22:22:00,
2013-02-21 17:24:00,18.0,8.2,29.80,NW,315,8.3,8.5,65,0.00,,,0.05,WUHU216HW,2013-02-21 22:24:00,
2013-02-21 17:27:00,18.0,8.5,29.79,WNW,293,8.9,11.2,66,0.00,,,0.05,WUHU216HW,2013-02-21 22:27:00,
2013-02-21 17:28:00,17.8,8.4,29.79,NW,315,7.6,13.0,66,0.00,,,0.05,WUHU216HW,2013-02-21 22:28:00,
2013-02-21 17:29:00,18.0,8.5,29.80,NW,315,9.8,13.0,66,0.00,,,0.05,WUHU216HW,2013-02-21 22:29:00,
2013-02-21 17:32:00,18.0,8.5,29.80,NNW,338,7.4,13.0,66,0.00,,,0.05,WUHU216HW,2013-02-21 22:32:00,
2013-02-21 17:33:00,18.0,8.5,29.80,NW,315,8.9,13.0,66,0.00,,,0.05,WUHU216HW,2013-02-21 22:33:00,
2013-02-21 17:34:00,18.0,8.5,29.80,NNW,338,8.5,13.0,66,0.00,,,0.05,WUHU216HW,2013-02-21 22:34:00,
2013-02-21 17:37:00,17.6,8.2,29.80,North,0,8.3,13.0,66,0.00,,,0.05,WUHU216HW,2013-02-21 22:37:00,
2013-02-21 17:38:00,17.6,8.2,29.80,WNW,293,5.8,9.8,66,0.00,,,0.05,WUHU216HW,2013-02-21 22:38:00,
2013-02-21 17:39:00,17.6,8.2,29.80,NNW,338,6.9,8.9,66,0.00,,,0.05,WUHU216HW,2013-02-21 22:39:00,
2013-02-21 17:42:00,17.6,8.6,29.80,NNW,338,6.0,8.9,67,0.00,,,0.05,WUHU216HW,2013-02-21 22:42:00,
2013-02-21 17:43:00,17.8,8.6,29.80,NW,315,6.9,8.5,67,0.00,,,0.05,WUHU216HW,2013-02-21 22:43:00,
2013-02-21 17:44:00,17.8,8.6,29.80,NNW,338,6.5,8.3,67,0.00,,,0.05,WUHU216HW,2013-02-21 22:44:00,
2013-02-21 17:47:00,17.8,8.6,29.81,North,0,5.6,7.4,67,0.00,,,0.05,WUHU216HW,2013-02-21 22:47:00,
2013-02-21 17:48:00,17.8,8.6,29.80,NW,315,8.7,8.7,67,0.00,,,0.05,WUHU216HW,2013-02-21 22:48:00,
2013-02-21 17:49:00,17.8,8.6,29.80,WNW,293,7.2,8.7,67,0.00,,,0.05,WUHU216HW,2013-02-21 22:49:00,
2013-02-21 17:52:00,18.0,8.8,29.81,North,0,6.7,9.2,67,0.00,,,0.05,WUHU216HW,2013-02-21 22:52:00,
2013-02-21 17:54:00,18.0,8.8,29.81,NNW,338,6.5,10.5,67,0.00,,,0.05,WUHU216HW,2013-02-21 22:54:00,
2013-02-21 17:57:00,18.0,8.8,29.81,NNW,338,10.1,11.4,67,0.00,,,0.05,WUHU216HW,2013-02-21 22:57:00,
2013-02-21 17:59:00,18.0,8.8,29.82,WNW,293,7.8,12.1,67,0.00,,,0.05,WUHU216HW,2013-02-21 22:59:00,
2013-02-21 18:00:00,18.0,8.8,29.81,NNW,338,5.8,12.1,67,0.00,,,0.05,WUHU216HW,2013-02-21 23:00:00,
2013-02-21 18:02:00,18.0,8.8,29.81,NW,315,6.3,12.1,67,0.00,,,0.05,WUHU216HW,2013-02-21 23:02:00,
2013-02-21 18:04:00,18.0,8.8,29.81,NNW,338,5.4,12.1,67,0.00,,,0.05,WUHU216HW,2013-02-21 23:04:00,
2013-02-21 18:05:00,18.0,8.8,29.81,WNW,293,11.9,12.1,67,0.00,,,0.05,WUHU216HW,2013-02-21 23:05:00,
2013-02-21 18:07:00,18.0,8.8,29.82,NNW,338,7.4,12.1,67,0.00,,,0.05,WUHU216HW,2013-02-21 23:07:00,
2013-02-21 18:09:00,18.0,8.8,29.82,NW,315,6.3,11.9,67,0.00,,,0.05,WUHU216HW,2013-02-21 23:09:00,
2013-02-21 18:10:00,18.0,8.8,29.82,NNW,338,8.1,11.9,67,0.00,,,0.05,WUHU216HW,2013-02-21 23:10:00,
2013-02-21 18:12:00,17.8,8.6,29.82,North,0,7.6,11.9,67,0.00,,,0.05,WUHU216HW,2013-02-21 23:12:00,
2013-02-21 18:13:00,18.0,8.8,29.82,NNW,338,4.0,11.9,67,0.00,,,0.05,WUHU216HW,2013-02-21 23:13:00,
2013-02-21 18:14:00,17.8,8.6,29.82,NNW,338,6.7,11.9,67,0.00,,,0.05,WUHU216HW,2013-02-21 23:14:00,
2013-02-21 18:15:00,17.8,8.6,29.82,NW,315,14.5,14.5,67,0.00,,,0.05,WUHU216HW,2013-02-21 23:15:00,
2013-02-21 18:17:00,17.8,9.0,29.82,North,0,7.6,16.1,68,0.00,,,0.05,WUHU216HW,2013-02-21 23:17:00,
2013-02-21 18:18:00,18.0,9.2,29.82,West,270,8.7,16.1,68,0.00,,,0.05,WUHU216HW,2013-02-21 23:18:00,
2013-02-21 18:19:00,18.0,8.8,29.82,NNW,338,5.4,16.1,67,0.00,,,0.05,WUHU216HW,2013-02-21 23:19:00,
2013-02-21 18:21:00,18.0,8.8,29.82,NW,315,11.9,16.1,67,0.00,,,0.05,WUHU216HW,2013-02-21 23:21:00,
2013-02-21 18:22:00,18.0,9.2,29.82,NNW,338,8.1,16.1,68,0.00,,,0.05,WUHU216HW,2013-02-21 23:22:00,
2013-02-21 18:23:00,18.0,9.2,29.82,NNW,338,8.1,16.1,68,0.00,,,0.05,WUHU216HW,2013-02-21 23:23:00,
2013-02-21 18:24:00,18.0,9.2,29.82,West,270,5.6,16.1,68,0.00,,,0.05,WUHU216HW,2013-02-21 23:24:00,
2013-02-21 18:26:00,18.0,9.2,29.82,NW,315,5.6,12.5,68,0.00,,,0.05,WUHU216HW,2013-02-21 23:26:00,
2013-02-21 18:28:00,18.0,9.2,29.82,NNW,338,6.3,12.1,68,0.00,,,0.05,WUHU216HW,2013-02-21 23:28:00,
2013-02-21 18:29:00,18.0,9.2,29.82,NW,315,8.5,12.1,68,0.00,,,0.05,WUHU216HW,2013-02-21 23:29:00,
2013-02-21 18:31:00,18.0,9.2,29.82,NNW,338,7.6,11.9,68,0.00,,,0.05,WUHU216HW,2013-02-21 23:31:00,
2013-02-21 18:33:00,18.0,9.2,29.83,NNW,338,5.6,11.0,68,0.00,,,0.05,WUHU216HW,2013-02-21 23:33:00,
2013-02-21 18:34:00,18.0,9.2,29.83,NW,315,6.9,12.1,68,0.00,,,0.05,WUHU216HW,2013-02-21 23:34:00,
2013-02-21 18:36:00,18.0,9.2,29.83,NNW,338,7.6,12.1,68,0.00,,,0.05,WUHU216HW,2013-02-21 23:36:00,
2013-02-21 18:38:00,18.0,9.2,29.83,NW,315,11.4,12.1,68,0.00,,,0.05,WUHU216HW,2013-02-21 23:38:00,
2013-02-21 18:39:00,17.8,9.0,29.83,NW,315,7.4,12.1,68,0.00,,,0.05,WUHU216HW,2013-02-21 23:39:00,
2013-02-21 18:41:00,17.8,9.0,29.84,WNW,293,6.3,12.1,68,0.00,,,0.05,WUHU216HW,2013-02-21 23:41:00,
2013-02-21 18:43:00,17.8,9.0,29.84,NW,315,10.3,12.1,68,0.00,,,0.05,WUHU216HW,2013-02-21 23:43:00,
2013-02-21 18:45:00,17.8,9.0,29.84,WNW,293,9.8,11.6,68,0.00,,,0.05,WUHU216HW,2013-02-21 23:45:00,
2013-02-21 18:46:00,17.8,9.0,29.84,WNW,293,7.8,11.4,68,0.00,,,0.05,WUHU216HW,2013-02-21 23:46:00,
2013-02-21 18:48:00,18.0,9.2,29.84,NW,315,6.9,13.9,68,0.00,,,0.05,WUHU216HW,2013-02-21 23:48:00,
2013-02-21 18:50:00,18.2,9.4,29.84,NW,315,6.7,13.9,68,0.00,,,0.05,WUHU216HW,2013-02-21 23:50:00,
2013-02-21 18:51:00,18.2,9.4,29.84,NNW,338,3.6,13.9,68,0.00,,,0.05,WUHU216HW,2013-02-21 23:51:00,
2013-02-21 18:53:00,18.4,9.6,29.84,North,0,5.4,13.9,68,0.00,,,0.05,WUHU216HW,2013-02-21 23:53:00,
2013-02-21 18:55:00,18.4,9.6,29.84,NW,315,5.6,13.9,68,0.00,,,0.05,WUHU216HW,2013-02-21 23:55:00,
2013-02-21 18:56:00,18.4,9.6,29.84,NNW,338,4.9,13.9,68,0.00,,,0.05,WUHU216HW,2013-02-21 23:56:00,
2013-02-21 18:58:00,18.4,9.6,29.84,WNW,293,11.6,11.6,68,0.00,,,0.05,WUHU216HW,2013-02-21 23:58:00,
2013-02-21 19:00:00,18.4,9.6,29.84,NNW,338,7.8,11.6,68,0.00,,,0.05,WUHU216HW,2013-02-22 00:00:00,
2013-02-21 19:01:00,18.4,9.2,29.84,NNW,338,8.1,11.6,67,0.00,,,0.05,WUHU216HW,2013-02-22 00:01:00,
2013-02-21 19:03:00,18.4,9.2,29.84,NNW,338,4.7,11.6,67,0.00,,,0.05,WUHU216HW,2013-02-22 00:03:00,
2013-02-21 19:05:00,18.4,9.2,29.84,NNW,338,5.1,11.6,67,0.00,,,0.05,WUHU216HW,2013-02-22 00:05:00,
2013-02-21 19:06:00,18.4,9.6,29.84,West,270,4.0,11.6,68,0.00,,,0.05,WUHU216HW,2013-02-22 00:06:00,
2013-02-21 19:08:00,18.4,9.6,29.85,NW,315,5.4,11.4,68,0.00,,,0.05,WUHU216HW,2013-02-22 00:08:00,
2013-02-21 19:09:00,18.4,9.6,29.85,NW,315,5.4,11.4,68,0.00,,,0.05,WUHU216HW,2013-02-22 00:09:00,
2013-02-21 19:10:00,18.4,9.6,29.85,WNW,293,9.8,11.4,68,0.00,,,0.05,WUHU216HW,2013-02-22 00:10:00,
2013-02-21 19:11:00,18.4,9.6,29.85,NNW,338,3.4,11.4,68,0.00,,,0.05,WUHU216HW,2013-02-22 00:11:00,
2013-02-21 19:14:00,18.4,9.6,29.85,NNW,338,4.0,9.8,68,0.00,,,0.05,WUHU216HW,2013-02-22 00:14:00,
2013-02-21 19:15:00,18.5,9.6,29.85,West,270,5.8,9.8,68,0.00,,,0.05,WUHU216HW,2013-02-22 00:15:00,
2013-02-21 19:16:00,18.5,9.6,29.85,NNW,338,2.2,9.8,68,0.00,,,0.05,WUHU216HW,2013-02-22 00:16:00,
2013-02-21 19:19:00,18.5,9.6,29.84,NW,315,6.7,9.8,68,0.00,,,0.05,WUHU216HW,2013-02-22 00:19:00,
2013-02-21 19:20:00,18.5,9.6,29.85,NNW,338,3.4,7.4,68,0.00,,,0.05,WUHU216HW,2013-02-22 00:20:00,
2013-02-21 19:21:00,18.5,9.6,29.85,WNW,293,6.3,7.4,68,0.00,,,0.05,WUHU216HW,2013-02-22 00:21:00,
2013-02-21 19:24:00,18.7,9.5,29.84,NW,315,5.6,7.8,67,0.00,,,0.05,WUHU216HW,2013-02-22 00:24:00,
2013-02-21 19:25:00,18.7,9.8,29.84,WNW,293,6.7,7.8,68,0.00,,,0.05,WUHU216HW,2013-02-22 00:25:00,
2013-02-21 19:27:00,18.7,9.8,29.84,NNW,338,2.7,7.8,68,0.00,,,0.05,WUHU216HW,2013-02-22 00:27:00,
2013-02-21 19:29:00,18.7,9.8,29.85,NNW,338,4.0,8.1,68,0.00,,,0.05,WUHU216HW,2013-02-22 00:29:00,
2013-02-21 19:30:00,18.7,9.8,29.85,NW,315,7.6,8.1,68,0.00,,,0.05,WUHU216HW,2013-02-22 00:30:00,
2013-02-21 19:32:00,18.7,9.5,29.85,NW,315,5.1,8.1,67,0.00,,,0.05,WUHU216HW,2013-02-22 00:32:00,
2013-02-21 19:34:00,18.9,9.6,29.86,NNW,338,8.1,8.1,67,0.00,,,0.05,WUHU216HW,2013-02-22 00:34:00,
2013-02-21 19:35:00,18.7,9.5,29.86,NNW,338,3.4,8.1,67,0.00,,,0.05,WUHU216HW,2013-02-22 00:35:00,
2013-02-21 19:37:00,18.7,9.5,29.85,NNW,338,5.6,8.3,67,0.00,,,0.05,WUHU216HW,2013-02-22 00:37:00,
2013-02-21 19:39:00,18.7,9.5,29.85,NW,315,6.3,8.3,67,0.00,,,0.05,WUHU216HW,2013-02-22 00:39:00,
2013-02-21 19:41:00,18.7,9.5,29.85,WNW,293,5.4,8.5,67,0.00,,,0.05,WUHU216HW,2013-02-22 00:41:00,
2013-02-21 19:42:00,18.7,9.5,29.86,WNW,293,6.7,8.5,67,0.00,,,0.05,WUHU216HW,2013-02-22 00:42:00,
2013-02-21 19:44:00,18.7,9.5,29.86,WNW,293,8.5,10.1,67,0.00,,,0.05,WUHU216HW,2013-02-22 00:44:00,
2013-02-21 19:45:00,18.7,9.5,29.86,WNW,293,7.2,10.1,67,0.00,,,0.05,WUHU216HW,2013-02-22 00:45:00,
2013-02-21 19:46:00,18.7,9.5,29.86,West,270,5.6,10.1,67,0.00,,,0.05,WUHU216HW,2013-02-22 00:46:00,
2013-02-21 19:47:00,18.5,9.4,29.86,NW,315,5.1,10.1,67,0.00,,,0.05,WUHU216HW,2013-02-22 00:47:00,
2013-02-21 19:49:00,18.5,9.4,29.87,NNW,338,3.4,10.1,67,0.00,,,0.05,WUHU216HW,2013-02-22 00:49:00,
2013-02-21 19:50:00,18.5,9.4,29.87,NW,315,3.6,10.1,67,0.00,,,0.05,WUHU216HW,2013-02-22 00:50:00,
2013-02-21 19:51:00,18.5,9.4,29.87,NW,315,5.8,10.1,67,0.00,,,0.05,WUHU216HW,2013-02-22 00:51:00,
2013-02-21 19:53:00,18.5,9.6,29.88,West,270,4.3,10.1,68,0.00,,,0.05,WUHU216HW,2013-02-22 00:53:00,
2013-02-21 19:54:00,18.5,9.6,29.88,West,270,12.5,12.5,68,0.00,,,0.05,WUHU216HW,2013-02-22 00:54:00,
2013-02-21 19:55:00,18.5,9.6,29.88,West,270,9.4,12.5,68,0.00,,,0.05,WUHU216HW,2013-02-22 00:55:00,
2013-02-21 19:56:00,18.5,9.6,29.88,NW,315,7.8,12.5,68,0.00,,,0.05,WUHU216HW,2013-02-22 00:56:00,
2013-02-21 19:58:00,18.4,9.2,29.88,NW,315,7.4,12.5,67,0.00,,,0.05,WUHU216HW,2013-02-22 00:58:00,
2013-02-21 19:59:00,18.4,9.6,29.88,NW,315,5.6,12.5,68,0.00,,,0.05,WUHU216HW,2013-02-22 00:59:00,
2013-02-21 20:00:00,18.4,9.2,29.88,West,270,8.5,12.5,67,0.00,,,0.05,WUHU216HW,2013-02-22 01:00:00,
2013-02-21 20:01:00,18.4,9.2,29.88,NW,315,6.3,12.5,67,0.00,,,0.05,WUHU216HW,2013-02-22 01:01:00,
2013-02-21 20:03:00,18.4,9.2,29.88,NW,315,5.8,12.5,67,0.00,,,0.05,WUHU216HW,2013-02-22 01:03:00,
2013-02-21 20:04:00,18.4,9.6,29.88,NW,315,6.7,12.5,68,0.00,,,0.05,WUHU216HW,2013-02-22 01:04:00,
2013-02-21 20:05:00,18.4,9.2,29.88,NW,315,7.6,12.1,67,0.00,,,0.05,WUHU216HW,2013-02-22 01:05:00,
2013-02-21 20:06:00,18.4,9.2,29.88,WNW,293,6.3,11.2,67,0.00,,,0.05,WUHU216HW,2013-02-22 01:06:00,
2013-02-21 20:08:00,18.4,9.6,29.88,NW,315,4.3,10.3,68,0.00,,,0.05,WUHU216HW,2013-02-22 01:08:00,
2013-02-21 20:10:00,18.4,9.6,29.88,NW,315,4.9,9.2,68,0.00,,,0.05,WUHU216HW,2013-02-22 01:10:00,
2013-02-21 20:11:00,18.4,9.6,29.89,WNW,293,6.0,9.2,68,0.00,,,0.05,WUHU216HW,2013-02-22 01:11:00,
2013-02-21 20:13:00,18.4,9.6,29.89,NW,315,3.4,9.2,68,0.00,,,0.05,WUHU216HW,2013-02-22 01:13:00,
2013-02-21 20:15:00,18.4,9.6,29.90,NNW,338,3.4,7.6,68,0.00,,,0.05,WUHU216HW,2013-02-22 01:15:00,
2013-02-21 20:17:00,18.5,9.6,29.90,North,0,4.7,6.7,68,0.00,,,0.05,WUHU216HW,2013-02-22 01:17:00,
2013-02-21 20:18:00,18.7,9.8,29.90,West,270,9.2,9.2,68,0.00,,,0.05,WUHU216HW,2013-02-22 01:18:00,
2013-02-21 20:19:00,18.7,9.8,29.90,WNW,293,8.5,9.2,68,0.00,,,0.05,WUHU216HW,2013-02-22 01:19:00,
2013-02-21 20:20:00,18.7,9.8,29.90,NW,315,5.4,9.2,68,0.00,,,0.05,WUHU216HW,2013-02-22 01:20:00,
2013-02-21 20:22:00,18.7,9.8,29.90,NW,315,6.0,12.1,68,0.00,,,0.05,WUHU216HW,2013-02-22 01:22:00,
2013-02-21 20:23:00,18.7,9.5,29.90,West,270,4.5,12.1,67,0.00,,,0.05,WUHU216HW,2013-02-22 01:23:00,
2013-02-21 20:25:00,18.7,9.5,29.90,WNW,293,5.6,5.6,67,0.00,,,0.00,WUHU216HW,2013-02-22 01:25:00,
2013-02-21 20:28:00,18.7,9.5,29.91,North,0,5.4,6.7,67,0.00,,,0.00,WUHU216HW,2013-02-22 01:28:00,
2013-02-21 20:30:00,18.5,9.6,29.90,NW,315,8.1,10.1,68,0.00,,,0.00,WUHU216HW,2013-02-22 01:30:00,
2013-02-21 20:33:00,18.5,9.6,29.91,WNW,293,8.5,10.1,68,0.00,,,0.00,WUHU216HW,2013-02-22 01:33:00,
2013-02-21 20:35:00,18.5,9.6,29.91,North,0,7.6,10.1,68,0.00,,,0.00,WUHU216HW,2013-02-22 01:35:00,
2013-02-21 20:38:00,18.5,9.6,29.91,North,0,7.6,10.1,68,0.00,,,0.00,WUHU216HW,2013-02-22 01:38:00,
2013-02-21 20:39:00,18.5,9.6,29.91,North,0,7.6,9.8,68,0.00,,,0.00,WUHU216HW,2013-02-22 01:39:00,
2013-02-21 20:40:00,18.5,9.6,29.91,North,0,7.6,9.8,68,0.00,,,0.00,WUHU216HW,2013-02-22 01:40:00,
2013-02-21 20:41:00,18.5,9.6,29.91,North,0,7.6,9.8,68,0.00,,,0.00,WUHU216HW,2013-02-22 01:41:00,
2013-02-21 20:43:00,18.5,9.6,29.91,North,0,7.6,9.8,68,0.00,,,0.00,WUHU216HW,2013-02-22 01:43:00,
2013-02-21 20:44:00,18.5,9.6,29.91,North,0,7.6,7.6,68,0.00,,,0.00,WUHU216HW,2013-02-22 01:44:00,
2013-02-21 20:59:00,18.9,10.4,29.92,West,270,9.8,9.8,69,0.00,,,0.00,WUHU216HW,2013-02-22 01:59:00,
2013-02-21 21:04:00,18.9,10.4,29.93,West,270,9.4,11.4,69,0.00,,,0.00,WUHU216HW,2013-02-22 02:04:00,
2013-02-21 21:05:00,18.9,10.4,29.93,West,270,9.4,11.4,69,0.00,,,0.00,WUHU216HW,2013-02-22 02:05:00,
2013-02-21 21:10:00,19.1,10.5,29.93,NNW,338,6.3,12.8,69,0.00,,,0.00,WUHU216HW,2013-02-22 02:10:00,
2013-02-21 21:15:00,19.1,10.5,29.94,NW,315,9.4,12.8,69,0.00,,,0.00,WUHU216HW,2013-02-22 02:15:00,
2013-02-21 21:20:00,19.1,10.5,29.94,NNW,338,6.7,9.4,69,0.00,,,0.00,WUHU216HW,2013-02-22 02:20:00,
2013-02-21 21:21:00,19.1,10.5,29.94,NNW,338,7.8,9.4,69,0.00,,,0.00,WUHU216HW,2013-02-22 02:21:00,
2013-02-21 21:25:00,19.1,10.5,29.94,NW,315,9.2,10.5,69,0.00,,,0.00,WUHU216HW,2013-02-22 02:25:00,
2013-02-21 21:26:00,19.1,10.8,29.94,North,0,4.3,10.5,70,0.00,,,0.00,WUHU216HW,2013-02-22 02:26:00,
2013-02-21 21:30:00,19.1,10.5,29.94,NW,315,7.4,10.5,69,0.00,,,0.00,WUHU216HW,2013-02-22 02:30:00,
2013-02-21 21:31:00,19.1,10.5,29.94,NNW,338,6.7,10.5,69,0.00,,,0.00,WUHU216HW,2013-02-22 02:31:00,
2013-02-21 21:35:00,19.1,10.8,29.94,NW,315,5.4,10.1,70,0.00,,,0.00,WUHU216HW,2013-02-22 02:35:00,
2013-02-21 21:36:00,19.1,10.8,29.94,WNW,293,10.5,10.5,70,0.00,,,0.00,WUHU216HW,2013-02-22 02:36:00,
2013-02-21 21:40:00,19.3,11.0,29.95,WNW,293,8.5,10.5,70,0.00,,,0.00,WUHU216HW,2013-02-22 02:40:00,
2013-02-21 21:41:00,19.1,10.8,29.95,NW,315,6.9,10.5,70,0.00,,,0.00,WUHU216HW,2013-02-22 02:41:00,
2013-02-21 21:46:00,19.3,11.0,29.95,NW,315,6.7,9.2,70,0.00,,,0.00,WUHU216HW,2013-02-22 02:46:00,
2013-02-21 21:51:00,19.3,11.0,29.95,NW,315,5.8,9.2,70,0.00,,,0.00,WUHU216HW,2013-02-22 02:51:00,
2013-02-21 21:56:00,19.3,11.0,29.96,NW,315,4.0,9.2,70,0.00,,,0.00,WUHU216HW,2013-02-22 02:56:00,
2013-02-21 22:01:00,19.3,11.4,29.96,West,270,11.9,12.8,71,0.00,,,0.00,WUHU216HW,2013-02-22 03:01:00,
2013-02-21 22:06:00,19.4,11.4,29.96,NNW,338,6.3,12.8,71,0.00,,,0.00,WUHU216HW,2013-02-22 03:06:00,
2013-02-21 22:11:00,19.6,12.0,29.96,West,270,10.1,11.9,72,0.00,,,0.00,WUHU216HW,2013-02-22 03:11:00,
2013-02-21 22:12:00,19.6,12.0,29.97,North,0,10.3,11.9,72,0.00,,,0.00,WUHU216HW,2013-02-22 03:12:00,
2013-02-21 22:16:00,19.8,12.2,29.97,NW,315,7.8,11.4,72,0.00,,,0.00,WUHU216HW,2013-02-22 03:16:00,
2013-02-21 22:17:00,19.8,12.2,29.97,NW,315,8.3,11.4,72,0.00,,,0.00,WUHU216HW,2013-02-22 03:17:00,
2013-02-21 22:21:00,19.8,12.2,29.97,NE,45,9.2,11.4,72,0.00,,,0.00,WUHU216HW,2013-02-22 03:21:00,
2013-02-21 22:22:00,19.8,12.2,29.97,West,270,6.9,11.4,72,0.00,,,0.00,WUHU216HW,2013-02-22 03:22:00,
2013-02-21 22:26:00,19.8,12.2,29.97,NW,315,4.0,9.6,72,0.00,,,0.00,WUHU216HW,2013-02-22 03:26:00,
2013-02-21 22:27:00,19.8,12.2,29.97,NW,315,6.9,9.6,72,0.00,,,0.00,WUHU216HW,2013-02-22 03:27:00,
2013-02-21 22:31:00,19.8,12.4,29.97,NW,315,7.6,14.5,73,0.00,,,0.00,WUHU216HW,2013-02-22 03:31:00,
2013-02-21 22:32:00,19.8,12.4,29.97,NW,315,7.6,14.5,73,0.00,,,0.00,WUHU216HW,2013-02-22 03:32:00,
2013-02-21 22:37:00,19.8,12.4,29.97,NNW,338,7.6,14.5,73,0.00,,,0.00,WUHU216HW,2013-02-22 03:37:00,
2013-02-21 22:38:00,19.8,12.4,29.98,WSW,248,9.8,14.5,73,0.00,,,0.00,WUHU216HW,2013-02-22 03:38:00,
2013-02-21 22:41:00,20.0,12.6,29.98,NW,315,3.6,12.8,73,0.00,,,0.00,WUHU216HW,2013-02-22 03:41:00,
2013-02-21 22:42:00,20.0,12.6,29.98,NW,315,3.6,12.8,73,0.00,,,0.00,WUHU216HW,2013-02-22 03:42:00,
2013-02-21 22:43:00,20.0,12.6,29.97,NNW,338,4.5,12.8,73,0.00,,,0.00,WUHU216HW,2013-02-22 03:43:00,
2013-02-21 22:47:00,20.0,13.0,29.98,West,270,10.7,10.7,74,0.00,,,0.00,WUHU216HW,2013-02-22 03:47:00,
2013-02-21 22:48:00,20.0,13.0,29.98,North,0,6.9,10.7,74,0.00,,,0.00,WUHU216HW,2013-02-22 03:48:00,
2013-02-21 22:52:00,20.0,13.0,29.98,NNW,338,5.8,10.7,74,0.00,,,0.00,WUHU216HW,2013-02-22 03:52:00,
2013-02-21 22:53:00,20.0,13.0,29.98,WNW,293,6.3,10.7,74,0.00,,,0.00,WUHU216HW,2013-02-22 03:53:00,
2013-02-21 22:57:00,20.0,13.0,29.98,NW,315,6.9,11.0,74,0.00,,,0.00,WUHU216HW,2013-02-22 03:57:00,
2013-02-21 22:58:00,20.0,13.0,29.98,WNW,293,6.9,11.0,74,0.00,,,0.00,WUHU216HW,2013-02-22 03:58:00,
2013-02-21 22:59:00,20.0,13.0,29.98,NW,315,8.9,11.0,74,0.00,,,0.00,WUHU216HW,2013-02-22 03:59:00,
2013-02-21 23:02:00,20.2,13.4,29.98,NW,315,8.1,11.0,75,0.00,,,0.00,WUHU216HW,2013-02-22 04:02:00,
2013-02-21 23:03:00,20.2,13.4,29.98,NNW,338,5.8,11.0,75,0.00,,,0.00,WUHU216HW,2013-02-22 04:03:00,
2013-02-21 23:05:00,20.2,13.4,29.98,NW,315,6.5,9.8,75,0.00,,,0.00,WUHU216HW,2013-02-22 04:05:00,
2013-02-21 23:07:00,20.2,13.4,29.98,NW,315,7.6,9.8,75,0.00,,,0.00,WUHU216HW,2013-02-22 04:07:00,
2013-02-21 23:08:00,20.3,13.6,29.99,North,0,6.7,9.8,75,0.00,,,0.00,WUHU216HW,2013-02-22 04:08:00,
2013-02-21 23:10:00,20.3,13.3,29.98,NW,315,4.7,9.8,74,0.00,,,0.00,WUHU216HW,2013-02-22 04:10:00,
2013-02-21 23:12:00,20.3,13.6,29.98,NNW,338,7.2,7.6,75,0.00,,,0.00,WUHU216HW,2013-02-22 04:12:00,
2013-02-21 23:13:00,20.3,13.6,29.98,NW,315,4.0,7.6,75,0.00,,,0.00,WUHU216HW,2013-02-22 04:13:00,
2013-02-21 23:15:00,20.5,13.8,29.99,West,270,8.3,8.3,75,0.00,,,0.00,WUHU216HW,2013-02-22 04:15:00,
2013-02-21 23:17:00,20.5,13.5,29.98,NNW,338,6.7,8.3,74,0.00,,,0.00,WUHU216HW,2013-02-22 04:17:00,
2013-02-21 23:18:00,20.5,13.5,29.98,WNW,293,9.8,9.8,74,0.00,,,0.00,WUHU216HW,2013-02-22 04:18:00,
2013-02-21 23:20:00,20.5,13.8,29.99,NW,315,10.1,10.1,75,0.00,,,0.00,WUHU216HW,2013-02-22 04:20:00,
2013-02-21 23:23:00,20.7,14.0,29.99,NNW,338,7.4,10.1,75,0.00,,,0.00,WUHU216HW,2013-02-22 04:23:00,
2013-02-21 23:25:00,20.5,13.8,29.99,West,270,6.3,10.1,75,0.00,,,0.00,WUHU216HW,2013-02-22 04:25:00,
2013-02-21 23:28:00,20.5,13.8,29.99,West,270,5.6,10.1,75,0.00,,,0.00,WUHU216HW,2013-02-22 04:28:00,
2013-02-21 23:29:00,20.5,13.5,29.99,NNW,338,8.1,10.1,74,0.00,,,0.00,WUHU216HW,2013-02-22 04:29:00,
2013-02-21 23:30:00,20.5,13.5,29.99,NNW,338,9.4,9.4,74,0.00,,,0.00,WUHU216HW,2013-02-22 04:30:00,
2013-02-21 23:33:00,20.7,13.7,29.99,NW,315,12.1,12.1,74,0.00,,,0.00,WUHU216HW,2013-02-22 04:33:00,
2013-02-21 23:34:00,20.7,13.7,29.99,NW,315,7.6,12.1,74,0.00,,,0.00,WUHU216HW,2013-02-22 04:34:00,
2013-02-21 23:36:00,20.7,13.7,29.99,North,0,7.6,12.1,74,0.00,,,0.00,WUHU216HW,2013-02-22 04:36:00,
2013-02-21 23:38:00,20.9,13.9,29.99,NW,315,6.9,12.1,74,0.00,,,0.00,WUHU216HW,2013-02-22 04:38:00,
2013-02-21 23:39:00,20.9,13.9,29.99,NW,315,7.4,12.1,74,0.00,,,0.00,WUHU216HW,2013-02-22 04:39:00,
2013-02-21 23:41:00,20.9,14.1,30.00,NW,315,7.2,12.1,75,0.00,,,0.00,WUHU216HW,2013-02-22 04:41:00,
2013-02-21 23:43:00,20.9,13.9,29.99,NNW,338,7.4,9.2,74,0.00,,,0.00,WUHU216HW,2013-02-22 04:43:00,
2013-02-21 23:44:00,20.9,13.9,29.99,NNW,338,6.7,9.2,74,0.00,,,0.00,WUHU216HW,2013-02-22 04:44:00,
2013-02-21 23:46:00,20.9,14.1,30.00,NW,315,6.3,9.2,75,0.00,,,0.00,WUHU216HW,2013-02-22 04:46:00,
2013-02-21 23:48:00,20.9,14.1,30.00,NNW,338,10.5,10.5,75,0.00,,,0.00,WUHU216HW,2013-02-22 04:48:00,
2013-02-21 23:49:00,20.9,14.1,30.00,NNW,338,5.4,10.5,75,0.00,,,0.00,WUHU216HW,2013-02-22 04:49:00,
2013-02-21 23:52:00,20.9,14.1,30.00,NW,315,8.1,10.5,75,0.00,,,0.00,WUHU216HW,2013-02-22 04:52:00,
2013-02-21 23:53:00,20.9,14.1,30.00,NNW,338,4.9,10.5,75,0.00,,,0.00,WUHU216HW,2013-02-22 04:53:00,
2013-02-21 23:54:00,20.9,14.1,30.00,NNW,338,4.9,10.5,75,0.00,,,0.00,WUHU216HW,2013-02-22 04:54:00,
2013-02-21 23:57:00,21.1,14.3,30.00,NNW,338,4.3,10.5,75,0.00,,,0.00,WUHU216HW,2013-02-22 04:57:00,
2013-02-21 23:58:00,21.1,14.3,30.01,NW,315,7.2,9.8,75,0.00,,,0.00,WUHU216HW,2013-02-22 04:58:00,
2013-02-21 23:59:00,21.1,14.3,30.01,NW,315,7.2,9.8,75,0.00,,,0.00,WUHU216HW,2013-02-22 04:59:00,